XE2VP-WX Weather Reports


time (UTC)temp
C
wind
direction
speed
KPH
gust
KPH
rain 1hr
cm
rain 24hr
cm
rain mn
cm
humidity
%
barometer
mb
20260507151616 25 70 8.0 14.5 0.00 0.30 0.00 71 944.8
20260507151516 25 64 8.0 14.5 0.00 0.30 0.00 71 944.8
20260507151416 25 197 8.0 14.5 0.00 0.30 0.00 72 944.8
20260507151314 25 74 9.7 14.5 0.00 0.30 0.00 72 944.8
20260507151215 25 15 8.0 14.5 0.00 0.30 0.00 73 944.8
20260507151114 25 60 8.0 14.5 0.00 0.30 0.00 73 944.9
20260507151014 25 77 8.0 14.5 0.00 0.30 0.00 72 944.9
20260507150915 25 76 8.0 14.5 0.00 0.30 0.00 72 944.9
20260507150814 25 90 8.0 14.5 0.00 0.30 0.00 73 944.9
20260507150715 25 70 8.0 14.5 0.00 0.30 0.00 73 944.9
20260507150614 25 70 8.0 14.5 0.00 0.30 0.00 72 944.9
20260507150514 25 96 8.0 14.5 0.00 0.30 0.00 71 944.9
20260507150415 25 75 8.0 14.5 0.00 0.30 0.00 72 945.0
20260507150314 25 177 8.0 17.7 0.00 0.30 0.00 72 945.0
20260507150210 25 150 8.0 17.7 0.00 0.30 0.00 73 945.0
20260507150109 25 95 9.7 17.7 0.00 0.30 0.00 73 945.0
20260507150009 25 78 9.7 17.7 0.00 0.30 0.00 73 945.0
20260507145908 25 72 9.7 17.7 0.00 0.30 0.00 73 945.0
20260507145808 25 96 9.7 17.7 0.00 0.30 0.00 74 945.0
20260507145704 25 95 9.7 17.7 0.00 0.30 0.00 74 945.1
20260507145605 25 56 9.7 17.7 0.00 0.30 0.00 74 945.1
20260507145505 25 100 8.0 17.7 0.00 0.30 0.00 75 945.0
20260507145404 25 78 8.0 17.7 0.00 0.30 0.00 75 945.0
20260507145307 25 78 8.0 17.7 0.00 0.30 0.00 75 945.0
20260507145204 25 78 6.4 16.1 0.00 0.30 0.00 74 945.0
20260507145105 25 87 6.4 14.5 0.00 0.30 0.00 74 945.0
20260507145004 25 61 4.8 14.5 0.00 0.30 0.00 74 945.0
20260507144905 25 74 4.8 14.5 0.00 0.30 0.00 73 945.0
20260507144804 25 61 4.8 14.5 0.00 0.30 0.00 73 945.0
20260507144705 25 53 4.8 14.5 0.00 0.30 0.00 74 945.0
20260507144603 25 34 6.4 14.5 0.00 0.30 0.00 74 945.0
20260507144502 25 128 6.4 14.5 0.00 0.30 0.00 74 945.1
20260507144359 24 86 6.4 16.1 0.00 0.30 0.00 75 945.1
20260507144259 24 48 6.4 16.1 0.00 0.30 0.00 75 945.0
20260507144158 24 99 6.4 19.3 0.00 0.30 0.00 76 945.0
20260507144059 24 67 8.0 19.3 0.00 0.30 0.00 77 945.0
20260507143959 24 141 8.0 19.3 0.00 0.30 0.00 78 945.0
20260507143859 24 68 9.7 19.3 0.00 0.30 0.00 77 945.0
20260507143758 24 83 9.7 19.3 0.00 0.30 0.00 76 945.0
20260507143659 24 80 8.0 19.3 0.00 0.30 0.00 77 945.0
20260507143559 24 105 8.0 19.3 0.00 0.30 0.00 78 944.9
20260507143459 24 59 8.0 19.3 0.00 0.30 0.00 77 944.9
20260507143359 24 78 8.0 19.3 0.00 0.30 0.00 77 945.0
20260507143259 24 51 8.0 19.3 0.00 0.30 0.00 78 944.9
20260507143159 24 321 8.0 19.3 0.00 0.30 0.00 78 944.9
20260507143059 24 89 8.0 17.7 0.00 0.30 0.00 77 944.9
20260507142959 24 73 8.0 17.7 0.00 0.30 0.00 76 944.9
20260507142859 24 72 8.0 17.7 0.00 0.30 0.00 76 945.0
20260507142758 24 98 8.0 17.7 0.00 0.30 0.00 77 945.0
20260507142659 23 174 8.0 17.7 0.00 0.30 0.00 78 945.0
20260507142559 23 10 9.7 17.7 0.00 0.30 0.00 79 945.0
20260507142459 23 47 9.7 17.7 0.00 0.30 0.00 79 945.0
20260507142359 23 72 9.7 17.7 0.00 0.30 0.00 80 945.1
20260507142259 23 81 8.0 16.1 0.00 0.30 0.00 80 945.1
20260507142159 23 78 8.0 16.1 0.00 0.30 0.00 79 945.1
20260507142059 23 79 8.0 16.1 0.00 0.30 0.00 79 945.1
20260507141959 24 61 8.0 14.5 0.00 0.30 0.00 79 945.1
20260507141859 24 78 8.0 14.5 0.00 0.30 0.00 79 945.1
20260507141759 24 75 8.0 14.5 0.00 0.30 0.00 79 945.1
20260507141659 24 85 8.0 14.5 0.00 0.30 0.00 78 945.1
20260507141559 24 63 8.0 14.5 0.00 0.30 0.00 79 945.1
20260507141500 23 49 6.4 14.5 0.00 0.30 0.00 79 945.1
20260507141359 23 75 6.4 14.5 0.00 0.30 0.00 80 945.2
20260507141259 23 71 6.4 14.5 0.00 0.30 0.00 81 945.2
20260507141159 23 27 6.4 14.5 0.00 0.30 0.00 80 945.2
20260507141100 24 79 6.4 14.5 0.00 0.30 0.00 81 945.2
20260507140959 24 56 6.4 14.5 0.00 0.30 0.00 81 945.2
20260507140859 24 61 6.4 12.9 0.00 0.30 0.00 80 945.2
20260507140759 24 83 4.8 12.9 0.00 0.30 0.00 80 945.2
20260507140659 24 66 4.8 11.3 0.00 0.30 0.00 81 945.2
20260507140559 24 50 4.8 11.3 0.00 0.30 0.00 80 945.2
20260507140500 24 95 4.8 11.3 0.00 0.30 0.00 80 945.2
20260507140401 23 74 4.8 11.3 0.00 0.30 0.00 81 945.2
20260507140257 23 354 4.8 9.7 0.00 0.30 0.00 81 945.2
20260507140156 23 77 4.8 9.7 0.00 0.30 0.00 82 945.2
20260507140056 23 0 4.8 9.7 0.00 0.30 0.00 82 945.2
20260507135955 23 82 6.4 9.7 0.00 0.30 0.00 82 945.1
20260507135850 23 74 6.4 9.7 0.00 0.30 0.00 82 945.1
20260507135750 23 67 6.4 9.7 0.00 0.30 0.00 82 945.1
20260507135650 23 91 4.8 9.7 0.00 0.30 0.00 82 945.1
20260507135551 23 79 4.8 9.7 0.00 0.30 0.00 82 945.1
20260507135451 23 105 4.8 9.7 0.00 0.30 0.00 83 945.1
20260507135350 23 136 4.8 9.7 0.00 0.30 0.00 83 945.1
20260507135251 23 61 4.8 9.7 0.00 0.30 0.00 83 945.2
20260507135150 23 75 4.8 9.7 0.00 0.30 0.00 82 945.2
20260507135051 24 70 4.8 8.0 0.00 0.30 0.00 82 945.2
20260507134950 24 93 3.2 8.0 0.00 0.30 0.00 82 945.2
20260507134850 24 113 3.2 8.0 0.00 0.30 0.00 82 945.2
20260507134751 23 141 3.2 8.0 0.00 0.30 0.00 83 945.2
20260507134651 23 117 3.2 9.7 0.00 0.30 0.00 82 945.2
20260507134549 23 74 4.8 9.7 0.00 0.30 0.00 82 945.1
20260507134449 23 58 4.8 9.7 0.00 0.30 0.00 83 945.1
20260507134349 23 49 4.8 9.7 0.00 0.30 0.00 83 945.1
20260507134248 23 115 3.2 9.7 0.00 0.30 0.00 83 945.2
20260507134149 23 120 4.8 9.7 0.00 0.30 0.00 84 945.1
20260507134049 23 63 4.8 9.7 0.00 0.30 0.00 84 945.2
20260507133943 23 52 4.8 9.7 0.00 0.30 0.00 84 945.2
20260507133837 23 80 4.8 9.7 0.00 0.30 0.00 84 945.2
20260507133737 23 59 4.8 9.7 0.00 0.30 0.00 84 945.1
20260507133637 23 53 4.8 9.7 0.00 0.30 0.00 84 945.1
20260507133538 23 63 4.8 9.7 0.00 0.30 0.00 84 945.1
20260507133437 23 80 4.8 9.7 0.00 0.30 0.00 85 945.1
20260507133337 23 139 4.8 9.7 0.00 0.30 0.00 85 945.1
20260507133237 23 106 6.4 9.7 0.00 0.30 0.00 85 945.1
20260507133138 23 88 6.4 9.7 0.00 0.30 0.00 84 945.0
20260507133037 23 115 6.4 9.7 0.00 0.30 0.00 84 945.1
20260507132934 23 55 4.8 9.7 0.00 0.30 0.00 84 945.1
20260507132834 23 20 4.8 9.7 0.00 0.30 0.00 85 945.1
20260507132725 23 78 4.8 9.7 0.00 0.30 0.00 85 945.1
20260507132626 23 75 4.8 9.7 0.00 0.30 0.00 85 945.1
20260507132525 23 77 4.8 9.7 0.00 0.30 0.00 86 945.1
20260507132425 23 9 6.4 9.7 0.00 0.30 0.00 86 945.1
20260507132326 23 67 6.4 9.7 0.00 0.30 0.00 85 945.1
20260507132226 23 86 4.8 9.7 0.00 0.30 0.00 85 945.1
20260507132125 23 79 4.8 9.7 0.00 0.30 0.00 84 945.1
20260507132019 23 52 4.8 8.0 0.00 0.30 0.00 84 945.1
20260507131918 23 119 4.8 8.0 0.00 0.30 0.00 84 945.1
20260507131818 23 64 3.2 8.0 0.00 0.30 0.00 85 945.1
20260507131718 23 74 3.2 8.0 0.00 0.30 0.00 85 945.1
20260507131618 23 82 4.8 8.0 0.00 0.30 0.00 85 945.1
20260507131517 23 87 4.8 8.0 0.00 0.30 0.00 85 945.1
20260507131418 23 32 4.8 9.7 0.00 0.30 0.00 85 945.0
20260507131320 23 67 4.8 9.7 0.00 0.30 0.00 85 945.0
20260507131218 23 48 4.8 9.7 0.00 0.30 0.00 85 945.0
20260507131119 23 70 4.8 9.7 0.00 0.30 0.00 85 944.9
20260507131018 23 57 4.8 9.7 0.00 0.30 0.00 85 944.9
20260507130918 23 63 4.8 9.7 0.00 0.30 0.00 86 944.9
20260507130820 23 88 4.8 9.7 0.00 0.30 0.00 86 944.9
20260507130718 23 134 4.8 9.7 0.00 0.30 0.00 86 944.9
20260507130618 23 82 4.8 9.7 0.00 0.30 0.00 85 944.9
20260507130519 23 65 4.8 9.7 0.00 0.30 0.00 85 944.9
20260507130418 23 74 4.8 8.0 0.00 0.30 0.00 85 944.9
20260507130320 23 74 4.8 9.7 0.00 0.30 0.00 85 944.9
20260507130218 23 77 4.8 9.7 0.00 0.30 0.00 85 944.9
20260507130118 23 47 4.8 9.7 0.00 0.30 0.00 85 944.9
20260507130018 23 101 6.4 9.7 0.00 0.30 0.00 85 944.9
20260507125918 23 86 6.4 9.7 0.00 0.30 0.00 85 944.9
20260507125818 23 70 6.4 9.7 0.00 0.30 0.00 85 944.9
20260507125718 23 0 6.4 9.7 0.00 0.30 0.00 85 944.9
20260507125620 23 89 6.4 9.7 0.00 0.30 0.00 85 944.8
20260507125520 23 53 6.4 9.7 0.00 0.30 0.00 85 944.8
20260507125418 23 73 6.4 9.7 0.00 0.30 0.00 85 944.8
20260507125319 23 75 6.4 9.7 0.00 0.30 0.00 85 944.8
20260507125218 23 76 6.4 9.7 0.00 0.30 0.00 85 944.7
20260507125120 23 74 6.4 9.7 0.00 0.30 0.00 85 944.7
20260507125018 23 82 6.4 9.7 0.00 0.30 0.00 84 944.7
20260507124918 23 76 6.4 9.7 0.00 0.30 0.00 84 944.7
20260507124820 23 89 4.8 9.7 0.00 0.30 0.00 83 944.6
20260507124705 24 332 4.8 8.0 0.00 0.30 0.00 83 944.6
20260507124605 24 71 3.2 8.0 0.00 0.30 0.00 83 944.6
20260507124504 24 82 3.2 8.0 0.00 0.30 0.00 83 944.6
20260507124405 24 48 3.2 6.4 0.00 0.30 0.00 83 944.6
20260507124305 24 62 3.2 6.4 0.00 0.30 0.00 83 944.6
20260507124205 24 53 3.2 6.4 0.00 0.30 0.00 82 944.5
20260507124104 24 85 3.2 6.4 0.00 0.30 0.00 82 944.5
20260507124005 24 78 3.2 4.8 0.00 0.30 0.00 82 944.5
20260507123905 24 46 3.2 4.8 0.00 0.30 0.00 82 944.5
20260507123750 24 44 3.2 4.8 0.00 0.30 0.00 82 944.4
20260507123650 24 46 3.2 4.8 0.00 0.30 0.00 82 944.4
20260507123550 24 50 3.2 4.8 0.00 0.30 0.00 82 944.4
20260507123450 24 30 3.2 4.8 0.00 0.30 0.00 82 944.4
20260507123335 24 10 3.2 4.8 0.00 0.30 0.00 82 944.4
20260507123235 24 43 3.2 4.8 0.00 0.30 0.00 83 944.4
20260507123135 24 59 3.2 4.8 0.00 0.30 0.00 82 944.4
20260507123035 24 83 3.2 4.8 0.00 0.30 0.00 82 944.4
20260507122935 24 30 3.2 4.8 0.00 0.30 0.00 82 944.4
20260507122835 24 72 3.2 6.4 0.00 0.30 0.00 82 944.4
20260507122719 24 70 3.2 6.4 0.00 0.30 0.00 82 944.4
20260507122619 24 63 3.2 6.4 0.00 0.30 0.00 82 944.4
20260507122519 24 63 3.2 6.4 0.00 0.30 0.00 82 944.4
20260507122419 24 92 3.2 6.4 0.00 0.30 0.00 82 944.4
20260507122319 24 23 3.2 6.4 0.00 0.30 0.00 82 944.4
20260507122219 24 0 3.2 6.4 0.00 0.30 0.00 82 944.4
20260507122119 24 346 3.2 6.4 0.00 0.30 0.00 82 944.4
20260507122019 24 67 3.2 6.4 0.00 0.30 0.00 82 944.4
20260507121919 24 69 3.2 6.4 0.00 0.30 0.00 82 944.4
20260507121819 24 87 3.2 4.8 0.00 0.30 0.00 82 944.4
20260507121719 24 103 3.2 6.4 0.00 0.30 0.00 82 944.4
20260507121619 24 80 3.2 6.4 0.00 0.30 0.00 82 944.4
20260507121519 24 59 3.2 6.4 0.00 0.30 0.00 81 944.4
20260507121419 24 74 3.2 6.4 0.00 0.30 0.00 81 944.4
20260507121320 24 67 3.2 6.4 0.00 0.30 0.00 81 944.3
20260507121218 24 26 3.2 6.4 0.00 0.30 0.00 81 944.3
20260507121118 24 47 3.2 6.4 0.00 0.30 0.00 81 944.3
20260507121019 24 66 3.2 6.4 0.00 0.30 0.00 81 944.3
20260507120918 24 63 4.8 6.4 0.00 0.30 0.00 81 944.3
20260507120819 24 58 3.2 6.4 0.00 0.30 0.00 81 944.3
20260507120719 24 13 3.2 6.4 0.00 0.30 0.00 81 944.3
20260507120619 24 34 3.2 6.4 0.00 0.30 0.00 81 944.3
20260507120519 24 39 3.2 6.4 0.00 0.30 0.00 81 944.3
20260507120419 24 85 3.2 6.4 0.00 0.30 0.00 81 944.3
20260507120318 24 89 3.2 6.4 0.00 0.30 0.00 80 944.3
20260507120219 24 69 3.2 6.4 0.00 0.30 0.00 80 944.3
20260507120119 24 91 3.2 6.4 0.00 0.30 0.00 80 944.2
20260507120019 24 78 3.2 4.8 0.00 0.30 0.00 80 944.2
20260507115919 24 45 3.2 4.8 0.00 0.30 0.00 80 944.2
20260507115806 24 67 3.2 4.8 0.00 0.30 0.00 80 944.2
20260507115706 24 72 3.2 4.8 0.00 0.30 0.00 79 944.2
20260507115605 24 100 3.2 4.8 0.00 0.30 0.00 79 944.2
20260507115505 24 108 3.2 4.8 0.00 0.30 0.00 79 944.2
20260507115406 24 80 3.2 4.8 0.00 0.30 0.00 79 944.2
20260507115251 24 78 1.6 4.8 0.00 0.30 0.00 79 944.1
20260507115151 24 342 1.6 4.8 0.00 0.30 0.00 79 944.1
20260507115051 24 90 3.2 4.8 0.00 0.30 0.00 79 944.1
20260507114951 24 24 3.2 4.8 0.00 0.30 0.00 79 944.1
20260507114851 24 59 3.2 4.8 0.00 0.30 0.00 79 944.1
20260507114751 24 52 3.2 4.8 0.00 0.30 0.00 79 944.1
20260507114651 24 41 3.2 4.8 0.00 0.30 0.00 79 944.1
20260507114550 24 64 3.2 4.8 0.00 0.30 0.00 79 944.1
20260507114436 25 67 3.2 4.8 0.00 0.30 0.00 79 944.1
20260507114336 25 64 3.2 4.8 0.00 0.30 0.00 79 944.1
20260507114236 25 78 3.2 4.8 0.00 0.30 0.00 79 944.1
20260507114120 25 64 3.2 4.8 0.00 0.30 0.00 79 944.1
20260507114019 25 89 3.2 4.8 0.00 0.30 0.00 79 944.1
20260507113919 25 83 3.2 4.8 0.00 0.30 0.00 79 944.1
20260507113820 25 68 3.2 4.8 0.00 0.30 0.00 79 944.0
20260507113720 25 58 3.2 4.8 0.00 0.30 0.00 79 944.1
20260507113620 25 69 3.2 4.8 0.00 0.30 0.00 79 944.1
20260507113520 25 113 3.2 4.8 0.00 0.30 0.00 78 944.1
20260507113420 25 92 3.2 4.8 0.00 0.30 0.00 78 944.1
20260507113320 25 57 3.2 4.8 0.00 0.30 0.00 78 944.1
20260507113220 25 64 3.2 4.8 0.00 0.30 0.00 78 944.1
20260507113120 25 58 3.2 4.8 0.00 0.30 0.00 78 944.1
20260507113020 25 6 3.2 4.8 0.00 0.30 0.00 78 944.1
20260507112920 25 47 3.2 4.8 0.00 0.30 0.00 78 944.1
20260507112820 25 56 3.2 4.8 0.00 0.30 0.00 78 944.1
20260507112720 25 61 3.2 4.8 0.00 0.30 0.00 78 944.1
20260507112620 25 37 1.6 4.8 0.00 0.30 0.00 78 944.1
20260507112520 25 56 1.6 3.2 0.00 0.30 0.00 78 944.1
20260507112420 25 56 1.6 3.2 0.00 0.30 0.00 78 944.1
20260507112320 25 0 1.6 3.2 0.00 0.30 0.00 78 944.1
20260507112220 25 62 1.6 3.2 0.00 0.30 0.00 78 944.1
20260507112119 25 81 1.6 3.2 0.00 0.30 0.00 78 944.0
20260507112020 25 78 1.6 3.2 0.00 0.30 0.00 78 944.0
20260507111920 25 69 1.6 3.2 0.00 0.30 0.00 78 944.0
20260507111820 25 105 1.6 3.2 0.00 0.30 0.00 78 944.0
20260507111720 25 0 1.6 3.2 0.00 0.30 0.00 78 944.0
20260507111619 25 82 1.6 3.2 0.00 0.30 0.00 78 944.1
20260507111520 25 86 1.6 3.2 0.00 0.30 0.00 78 944.1
20260507111420 25 82 0.0 3.2 0.00 0.30 0.00 78 944.1
20260507111320 25 0 1.6 3.2 0.00 0.30 0.00 78 944.1
20260507111220 25 0 1.6 3.2 0.00 0.30 0.00 78 944.1
20260507111120 25 70 1.6 3.2 0.00 0.30 0.00 78 944.1
20260507111020 25 72 1.6 3.2 0.00 0.30 0.00 78 944.1
20260507110920 25 52 1.6 3.2 0.00 0.30 0.00 77 944.1
20260507110820 25 41 1.6 3.2 0.00 0.30 0.00 77 944.1
20260507110720 25 0 1.6 3.2 0.00 0.30 0.00 77 944.1
20260507110621 25 0 1.6 3.2 0.00 0.30 0.00 77 944.1
20260507110520 25 0 1.6 3.2 0.00 0.30 0.00 77 944.1
20260507110420 25 144 1.6 3.2 0.00 0.30 0.00 77 944.1
20260507110319 25 145 1.6 3.2 0.00 0.30 0.00 77 944.1
20260507110220 25 148 1.6 3.2 0.00 0.30 0.00 77 944.1
20260507110107 25 139 1.6 3.2 0.00 0.30 0.00 77 944.1
20260507110007 25 146 1.6 3.2 0.00 0.30 0.00 77 944.1
20260507105907 25 120 1.6 3.2 0.00 0.30 0.00 77 944.1
20260507105806 25 147 1.6 3.2 0.00 0.30 0.00 77 944.1
20260507105706 25 128 1.6 3.2 0.00 0.30 0.00 77 944.1
20260507105607 25 72 1.6 3.2 0.00 0.30 0.00 77 944.1
20260507105452 25 75 1.6 3.2 0.00 0.30 0.00 77 944.1
20260507105353 25 50 1.6 3.2 0.00 0.30 0.00 77 944.1
20260507105252 25 52 1.6 3.2 0.00 0.30 0.00 77 944.1
20260507105152 25 0 1.6 3.2 0.00 0.30 0.00 77 944.1
20260507105052 25 0 1.6 3.2 0.00 0.30 0.00 77 944.1
20260507104951 25 0 1.6 3.2 0.00 0.30 0.00 77 944.0
20260507104852 25 86 1.6 3.2 0.00 0.30 0.00 77 944.0
20260507104737 25 59 1.6 4.8 0.00 0.30 0.00 77 944.0
20260507104637 25 48 3.2 4.8 0.00 0.30 0.00 77 944.0
20260507104537 25 41 1.6 4.8 0.00 0.30 0.00 77 943.9
20260507104438 25 49 3.2 4.8 0.00 0.30 0.00 77 943.9
20260507104337 25 39 3.2 4.8 0.00 0.30 0.00 77 943.9
20260507104237 25 43 3.2 4.8 0.00 0.30 0.00 77 943.9
20260507104137 25 0 3.2 4.8 0.00 0.30 0.00 77 943.9
20260507104037 25 28 3.2 4.8 0.00 0.30 0.00 77 943.9
20260507103920 25 80 3.2 4.8 0.00 0.30 0.00 77 943.9
20260507103821 25 54 3.2 4.8 0.00 0.30 0.00 76 943.9
20260507103721 25 36 3.2 4.8 0.00 0.30 0.00 76 943.9
20260507103621 25 35 3.2 4.8 0.00 0.30 0.00 76 943.9
20260507103521 25 43 3.2 4.8 0.00 0.30 0.00 76 943.9
20260507103421 25 22 3.2 4.8 0.00 0.30 0.00 76 943.9
20260507103321 25 52 3.2 4.8 0.00 0.30 0.00 76 943.9
20260507103221 25 52 3.2 4.8 0.00 0.30 0.00 76 943.9
20260507103121 25 60 3.2 4.8 0.00 0.30 0.00 76 943.9
20260507103021 25 83 3.2 4.8 0.00 0.30 0.00 76 943.9
20260507102921 25 12 3.2 4.8 0.00 0.30 0.00 76 943.9
20260507102820 25 15 3.2 6.4 0.00 0.30 0.00 76 943.9
20260507102721 25 20 3.2 6.4 0.00 0.30 0.00 76 943.9
20260507102621 25 26 3.2 6.4 0.00 0.30 0.00 76 943.9
20260507102522 25 11 3.2 6.4 0.00 0.30 0.00 76 943.9
20260507102422 25 9 3.2 6.4 0.00 0.30 0.00 76 943.9
20260507102321 25 40 3.2 6.4 0.00 0.30 0.00 76 943.9
20260507102221 25 18 3.2 6.4 0.00 0.30 0.00 76 943.9
20260507102121 25 1 3.2 6.4 0.00 0.30 0.00 76 943.9
20260507102020 25 7 3.2 6.4 0.00 0.30 0.00 76 943.9
20260507101921 25 346 3.2 6.4 0.00 0.30 0.00 76 943.9
20260507101821 25 339 3.2 4.8 0.00 0.30 0.00 76 943.9
20260507101721 25 316 3.2 4.8 0.00 0.30 0.00 76 943.9
20260507101620 25 353 3.2 4.8 0.00 0.30 0.00 76 943.9
20260507101521 25 0 3.2 4.8 0.00 0.30 0.00 76 943.9
20260507101421 25 35 3.2 4.8 0.00 0.30 0.00 76 943.9
20260507101322 25 344 3.2 4.8 0.00 0.30 0.00 76 943.9
20260507101221 25 352 3.2 4.8 0.00 0.30 0.00 76 943.9
20260507101121 25 351 3.2 6.4 0.00 0.30 0.00 76 943.9
20260507101021 25 17 3.2 6.4 0.00 0.30 0.00 76 943.9
20260507100921 25 30 4.8 6.4 0.00 0.30 0.00 76 943.9
20260507100821 25 328 4.8 6.4 0.00 0.30 0.00 76 943.8
20260507100721 25 7 4.8 6.4 0.00 0.30 0.00 76 943.8
20260507100622 25 354 4.8 6.4 0.00 0.30 0.00 76 943.8
20260507100509 25 328 4.8 6.4 0.00 0.30 0.00 76 943.8
20260507100353 25 343 4.8 6.4 0.00 0.30 0.00 76 943.8
20260507100252 25 354 4.8 6.4 0.00 0.30 0.00 76 943.8
20260507100152 25 356 4.8 6.4 0.00 0.30 0.00 76 943.8
20260507100053 25 353 4.8 6.4 0.00 0.30 0.00 76 943.8
20260507095953 25 359 4.8 6.4 0.00 0.30 0.00 75 943.8
20260507095853 25 353 4.8 8.0 0.00 0.30 0.00 75 943.7
20260507095753 25 346 4.8 8.0 0.00 0.30 0.00 75 943.7
20260507095653 25 3 4.8 8.0 0.00 0.30 0.00 75 943.7
20260507095553 25 337 4.8 8.0 0.00 0.30 0.00 75 943.7
20260507095454 25 314 4.8 8.0 0.00 0.30 0.00 75 943.7
20260507095353 25 331 4.8 8.0 0.00 0.30 0.00 75 943.7
20260507095253 25 330 4.8 8.0 0.00 0.30 0.00 75 943.6
20260507095153 25 323 4.8 8.0 0.00 0.30 0.00 75 943.6
20260507095053 25 323 4.8 8.0 0.00 0.30 0.00 75 943.6
20260507094953 25 348 4.8 8.0 0.00 0.30 0.00 75 943.6
20260507094853 25 4 4.8 8.0 0.00 0.30 0.00 75 943.6
20260507094753 25 342 4.8 6.4 0.00 0.30 0.00 75 943.6
20260507094653 25 338 4.8 6.4 0.00 0.30 0.00 75 943.6
20260507094553 25 344 4.8 8.0 0.00 0.30 0.00 75 943.6
20260507094453 25 3 4.8 8.0 0.00 0.30 0.00 75 943.6
20260507094353 25 6 4.8 8.0 0.00 0.30 0.00 75 943.6
20260507094253 25 347 4.8 8.0 0.00 0.30 0.00 74 943.6
20260507094153 25 343 4.8 8.0 0.00 0.30 0.00 74 943.6
20260507094053 25 357 4.8 8.0 0.00 0.30 0.00 74 943.6
20260507093953 25 336 4.8 8.0 0.00 0.30 0.00 74 943.6
20260507093853 25 0 4.8 8.0 0.00 0.30 0.00 74 943.6
20260507093753 25 4 4.8 8.0 0.00 0.30 0.00 74 943.6
20260507093653 25 328 6.4 8.0 0.00 0.30 0.00 74 943.6
20260507093553 25 319 6.4 8.0 0.00 0.30 0.00 74 943.6
20260507093454 25 323 6.4 8.0 0.00 0.30 0.00 74 943.6
20260507093353 25 323 4.8 8.0 0.00 0.30 0.00 74 943.6
20260507093253 25 347 4.8 8.0 0.00 0.30 0.00 74 943.6
20260507093154 25 308 6.4 8.0 0.00 0.30 0.00 74 943.6
20260507093054 25 343 6.4 8.0 0.00 0.30 0.00 74 943.6
20260507092953 25 323 6.4 8.0 0.00 0.30 0.00 74 943.6
20260507092854 25 304 6.4 8.0 0.00 0.30 0.00 74 943.6
20260507092754 25 333 4.8 8.0 0.00 0.30 0.00 74 943.6
20260507092654 25 329 4.8 8.0 0.00 0.30 0.00 74 943.6
20260507092553 25 318 4.8 8.0 0.00 0.30 0.00 74 943.6
20260507092453 25 5 4.8 8.0 0.00 0.30 0.00 74 943.6
20260507092354 25 328 4.8 8.0 0.00 0.30 0.00 74 943.6
20260507092253 25 315 4.8 8.0 0.00 0.30 0.00 74 943.6
20260507092153 25 306 4.8 8.0 0.00 0.30 0.00 74 943.6
20260507092054 25 338 4.8 8.0 0.00 0.30 0.00 74 943.6
20260507091954 25 337 4.8 8.0 0.00 0.30 0.00 74 943.6
20260507091853 25 318 4.8 8.0 0.00 0.30 0.00 74 943.6
20260507091754 25 343 4.8 8.0 0.00 0.30 0.00 74 943.6
20260507091654 25 337 4.8 8.0 0.00 0.30 0.00 74 943.6
20260507091553 25 318 4.8 8.0 0.00 0.30 0.00 74 943.6
20260507091438 25 329 4.8 8.0 0.00 0.30 0.00 74 943.6
20260507091339 25 337 6.4 8.0 0.00 0.30 0.00 74 943.6
20260507091229 25 336 4.8 8.0 0.00 0.30 0.00 74 943.6
20260507091129 25 342 4.8 8.0 0.00 0.30 0.00 74 943.6
20260507091024 25 316 4.8 8.0 0.00 0.30 0.00 74 943.6
20260507090924 25 319 4.8 8.0 0.00 0.30 0.00 74 943.6
20260507090823 25 325 4.8 8.0 0.00 0.30 0.00 74 943.6
20260507090722 25 336 3.2 6.4 0.00 0.30 0.00 74 943.6
20260507090623 25 313 3.2 6.4 0.00 0.30 0.00 74 943.6
20260507090522 25 316 3.2 6.4 0.00 0.30 0.00 74 943.6
20260507090422 25 339 3.2 6.4 0.00 0.30 0.00 74 943.6
20260507090322 25 321 3.2 6.4 0.00 0.30 0.00 74 943.6
20260507090222 25 323 3.2 6.4 0.00 0.30 0.00 74 943.6
20260507090122 25 321 3.2 6.4 0.00 0.30 0.00 74 943.6
20260507090022 25 346 3.2 6.4 0.00 0.30 0.00 74 943.6
20260507085922 25 22 3.2 6.4 0.00 0.30 0.00 74 943.6
20260507085823 25 341 3.2 6.4 0.00 0.30 0.00 74 943.6
20260507085722 25 349 3.2 6.4 0.00 0.30 0.00 74 943.6
20260507085609 25 11 3.2 6.4 0.00 0.30 0.00 74 943.6
20260507085509 25 351 3.2 6.4 0.00 0.30 0.00 74 943.6
20260507085409 25 351 3.2 6.4 0.00 0.30 0.00 74 943.6
20260507085310 25 326 1.6 4.8 0.00 0.30 0.00 74 943.6
20260507085153 25 358 1.6 4.8 0.00 0.30 0.00 74 943.6
20260507085053 25 3 1.6 4.8 0.00 0.30 0.00 74 943.6
20260507084954 25 2 1.6 4.8 0.00 0.30 0.00 74 943.6
20260507084854 25 313 1.6 3.2 0.00 0.30 0.00 74 943.6
20260507084755 25 321 1.6 3.2 0.00 0.30 0.00 74 943.6
20260507084654 25 333 0.0 3.2 0.00 0.30 0.00 74 943.6
20260507084553 25 293 0.0 1.6 0.00 0.30 0.00 74 943.6
20260507084455 25 0 0.0 3.2 0.00 0.30 0.00 74 943.6
20260507084339 25 0 0.0 3.2 0.00 0.30 0.00 74 943.6
20260507084223 25 295 1.6 3.2 0.00 0.30 0.00 74 943.6
20260507084123 25 302 0.0 3.2 0.00 0.30 0.00 74 943.6
20260507084022 25 0 0.0 3.2 0.00 0.30 0.00 73 943.6
20260507083923 25 57 0.0 3.2 0.00 0.30 0.00 73 943.7
20260507083822 25 0 1.6 3.2 0.00 0.30 0.00 73 943.7
20260507083722 25 0 1.6 3.2 0.00 0.30 0.00 73 943.7
20260507083622 25 0 1.6 3.2 0.00 0.30 0.00 73 943.7
20260507083523 25 164 1.6 3.2 0.00 0.30 0.00 73 943.6
20260507083423 25 184 1.6 3.2 0.00 0.30 0.00 73 943.6
20260507083324 25 152 1.6 3.2 0.00 0.30 0.00 73 943.6
20260507083223 25 85 1.6 3.2 0.00 0.30 0.00 73 943.6
20260507083123 25 0 1.6 3.2 0.00 0.30 0.00 73 943.6
20260507083023 25 116 1.6 3.2 0.00 0.30 0.00 73 943.6
20260507082923 25 117 1.6 3.2 0.00 0.30 0.00 73 943.6
20260507082823 25 86 1.6 3.2 0.00 0.30 0.00 73 943.6
20260507082722 25 0 1.6 4.8 0.00 0.30 0.00 73 943.6
20260507082623 25 67 3.2 4.8 0.00 0.30 0.00 73 943.6
20260507082523 25 63 3.2 4.8 0.00 0.30 0.00 73 943.7
20260507082422 25 0 3.2 4.8 0.00 0.30 0.00 73 943.7
20260507082324 25 52 3.2 4.8 0.00 0.30 0.00 73 943.7
20260507082223 25 81 3.2 4.8 0.00 0.30 0.00 73 943.7
20260507082123 25 63 3.2 6.4 0.00 0.30 0.00 73 943.7
20260507082023 26 92 3.2 6.4 0.00 0.30 0.00 73 943.6
20260507081923 26 92 3.2 6.4 0.00 0.30 0.00 73 943.6
20260507081823 26 74 3.2 6.4 0.00 0.30 0.00 73 943.6
20260507081723 26 71 3.2 6.4 0.00 0.30 0.00 73 943.6
20260507081623 26 95 1.6 6.4 0.00 0.30 0.00 73 943.6
20260507081522 26 94 1.6 6.4 0.00 0.30 0.00 73 943.6
20260507081423 26 0 1.6 6.4 0.00 0.30 0.00 73 943.6
20260507081323 26 73 1.6 6.4 0.00 0.30 0.00 72 943.6
20260507081223 26 87 1.6 6.4 0.00 0.30 0.00 72 943.6
20260507081123 26 109 1.6 3.2 0.00 0.30 0.00 72 943.6
20260507081023 26 69 1.6 3.2 0.00 0.30 0.00 72 943.6
20260507080924 26 85 1.6 3.2 0.00 0.30 0.00 72 943.6
20260507080823 26 143 1.6 3.2 0.00 0.30 0.00 72 943.6
20260507080723 26 0 1.6 3.2 0.00 0.30 0.00 72 943.6
20260507080623 26 0 1.6 3.2 0.00 0.30 0.00 72 943.6
20260507080523 26 40 1.6 3.2 0.00 0.30 0.00 72 943.6
20260507080423 26 345 1.6 3.2 0.00 0.30 0.00 72 943.7
20260507080324 26 336 1.6 3.2 0.00 0.30 0.00 72 943.7
20260507080223 26 326 1.6 3.2 0.00 0.30 0.00 72 943.7
20260507080123 26 318 1.6 3.2 0.00 0.30 0.00 72 943.7
20260507080023 26 349 1.6 3.2 0.00 0.30 0.00 72 943.8
20260507075923 26 330 1.6 3.2 0.00 0.30 0.00 72 943.8
20260507075823 26 293 1.6 3.2 0.00 0.30 0.00 72 943.8
20260507075710 26 293 1.6 4.8 0.00 0.30 0.00 72 943.8
20260507075610 26 315 1.6 6.4 0.00 0.30 0.00 71 943.8
20260507075510 26 0 3.2 6.4 0.00 0.30 0.00 71 943.9
20260507075355 26 350 3.2 6.4 0.00 0.30 0.00 71 943.9
20260507075254 26 28 3.2 6.4 0.00 0.30 0.00 71 943.9
20260507075155 26 33 3.2 6.4 0.00 0.30 0.00 71 943.9
20260507075055 26 29 3.2 6.4 0.00 0.30 0.00 71 943.9
20260507074955 26 9 3.2 6.4 0.00 0.30 0.00 71 943.9
20260507074855 26 6 3.2 6.4 0.00 0.30 0.00 71 943.9
20260507074755 26 32 3.2 6.4 0.00 0.30 0.00 71 943.9
20260507074656 26 16 3.2 6.4 0.00 0.30 0.00 71 943.9
20260507074556 26 13 3.2 6.4 0.00 0.30 0.00 71 943.9
20260507074455 26 6 3.2 4.8 0.00 0.30 0.00 71 943.9
20260507074355 26 29 3.2 4.8 0.00 0.30 0.00 71 943.9
20260507074256 26 353 1.6 4.8 0.00 0.30 0.00 71 943.9
20260507074155 26 312 1.6 4.8 0.00 0.30 0.00 71 943.9
20260507074055 26 32 1.6 4.8 0.00 0.30 0.00 71 943.9
20260507073956 26 90 1.6 4.8 0.00 0.30 0.00 71 943.9
20260507073855 26 98 1.6 4.8 0.00 0.30 0.00 70 943.9
20260507073756 26 334 1.6 4.8 0.00 0.30 0.00 70 943.9
20260507073656 26 47 1.6 4.8 0.00 0.30 0.00 70 943.9
20260507073555 26 94 1.6 4.8 0.00 0.30 0.00 70 943.9
20260507073455 26 0 1.6 4.8 0.00 0.30 0.00 70 943.9
20260507073356 26 42 1.6 4.8 0.00 0.30 0.00 70 943.9
20260507073255 26 352 3.2 4.8 0.00 0.30 0.00 70 943.9
20260507073155 26 15 3.2 4.8 0.00 0.30 0.00 70 943.8
20260507073055 26 9 3.2 6.4 0.00 0.30 0.00 70 943.8
20260507072956 26 20 3.2 6.4 0.00 0.30 0.00 70 943.8
20260507072855 26 14 3.2 11.3 0.00 0.30 0.00 70 943.8
20260507072755 26 0 4.8 11.3 0.00 0.30 0.00 70 943.8
20260507072656 26 11 4.8 11.3 0.00 0.30 0.00 70 943.8
20260507072556 26 15 4.8 11.3 0.00 0.30 0.00 70 943.8
20260507072455 26 25 6.4 11.3 0.00 0.30 0.00 70 943.8
20260507072349 26 4 6.4 12.9 0.00 0.30 0.00 70 943.8
20260507072250 26 56 6.4 12.9 0.00 0.30 0.00 70 943.8
20260507072149 26 351 6.4 12.9 0.00 0.30 0.00 70 943.8
20260507072050 26 15 8.0 12.9 0.00 0.30 0.00 70 943.8
20260507071943 26 107 8.0 12.9 0.00 0.30 0.00 70 943.8
20260507071844 26 5 8.0 12.9 0.00 0.30 0.00 70 943.8
20260507071743 26 20 8.0 12.9 0.00 0.30 0.00 69 943.8
20260507071644 26 14 8.0 12.9 0.00 0.30 0.00 69 943.8
20260507071538 26 38 8.0 14.5 0.00 0.30 0.00 69 943.8
20260507071438 26 22 8.0 14.5 0.00 0.30 0.00 69 943.8
20260507071338 26 21 8.0 14.5 0.00 0.30 0.00 69 943.8
20260507071231 26 15 9.7 14.5 0.00 0.30 0.00 69 943.8
20260507071132 26 10 9.7 14.5 0.00 0.30 0.00 69 943.8
20260507071032 26 17 9.7 14.5 0.00 0.30 0.00 69 943.8
20260507070932 26 34 9.7 14.5 0.00 0.30 0.00 69 943.7
20260507070832 26 23 9.7 14.5 0.00 0.30 0.00 68 943.7
20260507070732 26 32 9.7 16.1 0.00 0.30 0.00 68 943.7
20260507070632 26 10 9.7 16.1 0.00 0.30 0.00 68 943.7
20260507070532 26 21 9.7 16.1 0.00 0.30 0.00 68 943.7
20260507070432 26 16 9.7 16.1 0.00 0.30 0.00 68 943.7
20260507070332 26 34 9.7 16.1 0.00 0.30 0.00 68 943.7
20260507070232 26 13 9.7 16.1 0.00 0.30 0.00 68 943.7
20260507070132 26 33 9.7 16.1 0.00 0.30 0.00 68 943.7
20260507070032 26 19 9.7 17.7 0.00 0.30 0.00 68 943.7
20260507065932 26 33 11.3 17.7 0.00 0.30 0.00 68 943.7
20260507065833 26 339 11.3 17.7 0.00 0.30 0.00 68 943.7
20260507065732 26 26 11.3 17.7 0.00 0.30 0.00 68 943.7
20260507065633 26 19 11.3 17.7 0.00 0.30 0.00 67 943.7
20260507065528 26 28 11.3 17.7 0.00 0.30 0.00 67 943.7
20260507065428 26 26 11.3 17.7 0.00 0.30 0.00 67 943.7
20260507065327 26 15 11.3 19.3 0.00 0.30 0.00 67 943.7
20260507065228 26 44 12.9 19.3 0.00 0.30 0.00 67 943.7
20260507065128 26 23 11.3 19.3 0.00 0.30 0.00 67 943.7
20260507065028 26 35 11.3 19.3 0.00 0.30 0.00 67 943.7
20260507064928 26 13 11.3 19.3 0.00 0.30 0.00 67 943.7
20260507064828 26 34 11.3 19.3 0.00 0.30 0.00 67 943.7
20260507064727 26 18 11.3 19.3 0.00 0.30 0.00 67 943.7
20260507064628 26 23 11.3 19.3 0.00 0.30 0.00 67 943.7
20260507064527 26 22 11.3 19.3 0.00 0.30 0.00 66 943.6
20260507064428 26 9 11.3 19.3 0.00 0.30 0.00 66 943.7
20260507064328 26 21 11.3 19.3 0.00 0.30 0.00 66 943.6
20260507064228 27 30 11.3 17.7 0.00 0.30 0.00 66 943.8
20260507064128 27 30 11.3 17.7 0.00 0.30 0.00 66 943.7
20260507064028 27 2 11.3 17.7 0.00 0.30 0.00 66 943.7
20260507063928 27 24 11.3 20.9 0.00 0.30 0.00 66 943.7
20260507063828 27 29 11.3 20.9 0.00 0.30 0.00 66 943.8
20260507063728 27 32 12.9 20.9 0.00 0.30 0.00 66 943.8
20260507063628 27 34 12.9 20.9 0.00 0.30 0.00 66 943.7
20260507063529 27 22 12.9 20.9 0.00 0.30 0.00 66 943.7
20260507063428 27 20 12.9 20.9 0.00 0.30 0.00 66 943.7
20260507063328 27 25 12.9 20.9 0.00 0.30 0.00 66 943.7
20260507063228 27 29 12.9 20.9 0.00 0.30 0.00 65 943.7
20260507063128 27 34 12.9 20.9 0.00 0.30 0.00 66 943.7
20260507063028 27 24 12.9 20.9 0.00 0.30 0.00 65 943.7
20260507062928 27 31 12.9 19.3 0.00 0.30 0.00 65 943.7
20260507062828 27 36 12.9 19.3 0.00 0.30 0.00 65 943.7
20260507062728 27 39 12.9 19.3 0.00 0.30 0.00 65 943.7
20260507062628 27 42 12.9 17.7 0.00 0.30 0.00 65 943.7
20260507062528 27 22 11.3 17.7 0.00 0.30 0.00 65 943.6
20260507062427 27 37 11.3 17.7 0.00 0.30 0.00 65 943.6
20260507062326 27 35 11.3 17.7 0.00 0.30 0.00 65 943.6
20260507062225 27 24 11.3 16.1 0.00 0.30 0.00 64 943.6
20260507062123 27 41 9.7 16.1 0.00 0.30 0.00 64 943.6
20260507062025 27 41 9.7 16.1 0.00 0.30 0.00 64 943.6
20260507061925 27 33 9.7 16.1 0.00 0.30 0.00 64 943.6
20260507061824 27 30 9.7 16.1 0.00 0.30 0.00 64 943.6
20260507061725 27 21 9.7 16.1 0.00 0.30 0.00 64 943.6
20260507061625 27 7 9.7 16.1 0.00 0.30 0.00 64 943.6
20260507061525 27 17 9.7 14.5 0.00 0.30 0.00 64 943.6
20260507061421 27 358 9.7 14.5 0.00 0.30 0.00 64 943.6
20260507061320 27 10 9.7 14.5 0.00 0.30 0.00 63 943.6
20260507061221 27 32 9.7 14.5 0.00 0.30 0.00 63 943.6
20260507061120 27 11 9.7 14.5 0.00 0.30 0.00 63 943.6
20260507061021 27 36 11.3 14.5 0.00 0.30 0.00 63 943.7
20260507060921 27 26 11.3 14.5 0.00 0.30 0.00 63 943.6
20260507060821 27 21 11.3 14.5 0.00 0.30 0.00 63 943.7
20260507060721 27 39 11.3 16.1 0.00 0.30 0.00 63 943.6
20260507060621 27 35 11.3 16.1 0.00 0.30 0.00 63 943.6
20260507060522 27 38 11.3 16.1 0.00 0.30 0.00 62 943.6
20260507060421 27 24 11.3 16.1 0.00 0.30 0.00 62 943.6
20260507060321 27 32 11.3 17.7 0.00 0.30 0.00 62 943.6
20260507060221 27 11 11.3 17.7 0.00 0.30 0.00 62 943.6
20260507060121 27 41 11.3 17.7 0.00 0.30 0.00 62 943.6
20260507060021 27 17 11.3 17.7 0.00 0.30 0.00 62 943.6
20260507055922 27 26 9.7 17.7 0.00 0.30 0.00 61 943.6
20260507055821 27 39 11.3 17.7 0.00 0.30 0.00 61 943.5
20260507055721 27 16 11.3 17.7 0.00 0.30 0.00 61 943.6
20260507055621 27 27 11.3 17.7 0.00 0.30 0.00 61 943.6
20260507055521 27 24 11.3 17.7 0.00 0.30 0.00 61 943.6
20260507055420 27 38 11.3 17.7 0.00 0.30 0.00 61 943.6
20260507055321 28 6 11.3 17.7 0.00 0.30 0.00 60 943.6
20260507055221 28 15 11.3 16.1 0.00 0.30 0.00 60 943.5
20260507055122 28 24 11.3 16.1 0.00 0.30 0.00 60 943.5
20260507055021 28 43 11.3 16.1 0.00 0.30 0.00 60 943.5
20260507054922 28 10 11.3 17.7 0.00 0.30 0.00 60 943.5
20260507054821 28 28 11.3 17.7 0.00 0.30 0.00 60 943.6
20260507054721 28 29 11.3 17.7 0.00 0.30 0.00 60 943.6
20260507054621 28 32 9.7 17.7 0.00 0.30 0.00 60 943.6
20260507054521 28 34 9.7 17.7 0.00 0.30 0.00 60 943.6
20260507054422 28 39 9.7 17.7 0.00 0.30 0.00 60 943.6
20260507054321 28 23 9.7 17.7 0.00 0.30 0.00 60 943.5
20260507054222 28 37 9.7 17.7 0.00 0.30 0.00 60 943.6
20260507054121 28 50 9.7 17.7 0.00 0.30 0.00 60 943.6
20260507054022 28 44 9.7 17.7 0.00 0.30 0.00 60 943.6
20260507053921 28 49 9.7 17.7 0.00 0.30 0.00 60 943.6
20260507053821 28 31 9.7 16.1 0.00 0.30 0.00 60 943.6
20260507053721 28 34 9.7 16.1 0.00 0.30 0.00 60 943.6
20260507053621 28 45 9.7 16.1 0.00 0.30 0.00 60 943.6
20260507053521 28 39 9.7 16.1 0.00 0.30 0.00 60 943.6
20260507053421 28 78 9.7 16.1 0.00 0.30 0.00 60 943.6
20260507053321 28 13 9.7 16.1 0.00 0.30 0.00 60 943.6
20260507053221 28 59 11.3 16.1 0.00 0.30 0.00 60 943.5
20260507053121 28 86 11.3 16.1 0.00 0.30 0.00 60 943.5
20260507053021 28 52 11.3 16.1 0.00 0.30 0.00 59 943.5
20260507052921 28 60 11.3 16.1 0.00 0.30 0.00 59 943.5
20260507052822 28 51 11.3 16.1 0.00 0.30 0.00 59 943.5
20260507052721 28 8 11.3 16.1 0.00 0.30 0.00 59 943.5
20260507052622 28 51 11.3 17.7 0.00 0.30 0.00 59 943.5
20260507052521 28 42 11.3 17.7 0.00 0.30 0.00 59 943.5
20260507052421 28 31 11.3 17.7 0.00 0.30 0.00 58 943.5
20260507052322 28 40 11.3 17.7 0.00 0.30 0.00 58 943.5
20260507052221 28 41 11.3 17.7 0.00 0.30 0.00 59 943.5
20260507052121 28 56 11.3 17.7 0.00 0.30 0.00 59 943.5
20260507052022 28 47 11.3 17.7 0.00 0.30 0.00 59 943.5
20260507051921 28 29 11.3 17.7 0.00 0.30 0.00 59 943.5
20260507051822 28 47 11.3 17.7 0.00 0.30 0.00 59 943.5
20260507051721 28 23 11.3 17.7 0.00 0.30 0.00 59 943.5
20260507051621 28 40 11.3 17.7 0.00 0.30 0.00 59 943.4
20260507051522 28 51 11.3 17.7 0.00 0.30 0.00 59 943.5
20260507051421 28 42 11.3 17.7 0.00 0.30 0.00 59 943.5
20260507051321 28 10 11.3 17.7 0.00 0.30 0.00 59 943.5
20260507051222 28 45 11.3 19.3 0.00 0.30 0.00 59 943.5
20260507051122 28 44 11.3 19.3 0.00 0.30 0.00 59 943.5
20260507051022 28 36 11.3 19.3 0.00 0.30 0.00 59 943.4
20260507050921 28 28 11.3 19.3 0.00 0.30 0.00 59 943.4
20260507050822 28 36 11.3 19.3 0.00 0.30 0.00 59 943.4
20260507050721 28 30 11.3 19.3 0.00 0.30 0.00 59 943.4
20260507050620 28 27 11.3 19.3 0.00 0.30 0.00 59 943.4
20260507050522 28 47 11.3 19.3 0.00 0.30 0.00 59 943.3
20260507050418 28 41 12.9 20.9 0.00 0.30 0.00 59 943.3
20260507050317 28 32 12.9 20.9 0.00 0.30 0.00 59 943.3
20260507050216 28 51 12.9 20.9 0.00 0.30 0.00 58 943.3
20260507050116 28 27 12.9 20.9 0.00 0.30 0.00 58 943.3
20260507050015 28 36 12.9 20.9 0.00 0.30 0.00 58 943.3
20260507045915 28 45 11.3 20.9 0.00 0.30 0.30 58 943.3
20260507045814 28 52 12.9 20.9 0.00 0.30 0.30 58 943.2
20260507045715 28 51 11.3 20.9 0.00 0.30 0.30 59 943.2
20260507045616 28 48 11.3 20.9 0.00 0.30 0.30 58 943.3
20260507045516 28 49 11.3 20.9 0.00 0.30 0.30 58 943.2
20260507045416 28 31 11.3 20.9 0.00 0.30 0.30 58 943.2
20260507045316 28 31 9.7 19.3 0.00 0.30 0.30 58 943.2
20260507045216 28 38 9.7 17.7 0.00 0.30 0.30 58 943.2
20260507045116 28 45 9.7 16.1 0.00 0.30 0.30 58 943.2
20260507045016 28 41 9.7 16.1 0.00 0.30 0.30 58 943.2
20260507044915 28 31 9.7 16.1 0.00 0.30 0.30 58 943.2
20260507044816 28 58 9.7 14.5 0.00 0.30 0.30 58 943.2
20260507044716 28 37 9.7 16.1 0.00 0.30 0.30 58 943.2
20260507044616 28 23 9.7 17.7 0.00 0.30 0.30 58 943.2
20260507044516 28 54 9.7 17.7 0.00 0.30 0.30 58 943.2
20260507044416 28 57 9.7 17.7 0.00 0.30 0.30 58 943.1
20260507044316 28 43 9.7 17.7 0.00 0.30 0.30 58 943.2
20260507044216 28 78 9.7 17.7 0.00 0.30 0.30 58 943.1
20260507044116 28 36 9.7 17.7 0.00 0.30 0.30 58 943.1
20260507044016 28 53 9.7 17.7 0.00 0.30 0.30 58 943.1
20260507043916 28 44 9.7 17.7 0.00 0.30 0.30 58 943.1
20260507043817 28 50 9.7 17.7 0.00 0.30 0.30 58 943.1
20260507043716 28 101 9.7 17.7 0.00 0.30 0.30 58 943.1
20260507043616 28 57 9.7 16.1 0.00 0.30 0.30 57 943.1
20260507043516 28 55 9.7 16.1 0.00 0.30 0.30 57 943.0
20260507043417 28 71 9.7 17.7 0.00 0.30 0.30 57 943.0
20260507043316 28 51 9.7 17.7 0.00 0.30 0.30 57 943.0
20260507043216 28 57 9.7 17.7 0.00 0.30 0.30 57 943.0
20260507043117 28 65 9.7 17.7 0.00 0.30 0.30 57 943.0
20260507043016 28 107 9.7 17.7 0.00 0.30 0.30 57 943.0
20260507042916 28 75 9.7 17.7 0.00 0.30 0.30 57 943.0
20260507042816 28 88 8.0 17.7 0.00 0.30 0.30 57 943.0
20260507042716 28 50 8.0 17.7 0.00 0.30 0.30 57 942.9
20260507042616 28 104 8.0 17.7 0.00 0.30 0.30 57 942.9
20260507042516 28 97 9.7 17.7 0.00 0.30 0.30 57 942.9
20260507042416 28 31 8.0 17.7 0.00 0.30 0.30 57 942.9
20260507042317 28 75 9.7 16.1 0.00 0.30 0.30 57 942.9
20260507042216 28 67 9.7 19.3 0.00 0.30 0.30 57 942.9
20260507042116 28 38 9.7 19.3 0.00 0.30 0.30 57 942.9
20260507042016 28 1 9.7 19.3 0.00 0.30 0.30 57 942.9
20260507041917 28 60 9.7 19.3 0.00 0.30 0.30 57 942.9
20260507041816 28 69 9.7 19.3 0.00 0.30 0.30 57 942.9
20260507041716 28 51 11.3 19.3 0.00 0.30 0.30 57 942.9
20260507041617 28 52 9.7 19.3 0.00 0.30 0.30 57 942.9
20260507041516 28 50 11.3 19.3 0.00 0.30 0.30 57 943.0
20260507041417 28 100 11.3 19.3 0.00 0.30 0.30 57 942.9
20260507041316 28 55 11.3 19.3 0.00 0.30 0.30 57 942.9
20260507041216 28 92 11.3 19.3 0.00 0.30 0.30 57 942.9
20260507041117 28 59 9.7 17.7 0.00 0.30 0.30 57 942.9
20260507041016 28 51 9.7 17.7 0.00 0.30 0.30 57 942.9
20260507040917 28 64 9.7 17.7 0.00 0.30 0.30 57 942.8
20260507040817 28 43 9.7 17.7 0.00 0.30 0.30 57 942.9
20260507040717 28 42 9.7 16.1 0.00 0.30 0.30 57 942.9
20260507040617 28 68 9.7 16.1 0.00 0.30 0.30 57 942.9
20260507040516 28 49 9.7 16.1 0.00 0.30 0.30 57 942.9
20260507040417 28 53 9.7 14.5 0.00 0.30 0.30 57 942.9
20260507040317 28 37 9.7 14.5 0.00 0.30 0.30 57 942.9
20260507040216 28 59 9.7 16.1 0.00 0.30 0.30 57 942.9
20260507040117 28 37 9.7 17.7 0.00 0.30 0.30 57 942.9
20260507040016 28 29 9.7 19.3 0.00 0.30 0.30 57 942.9
20260507035917 28 28 11.3 19.3 0.00 0.30 0.30 57 942.8
20260507035816 28 30 11.3 19.3 0.00 0.30 0.30 57 942.9
20260507035716 28 47 11.3 19.3 0.00 0.30 0.30 57 942.9
20260507035612 28 50 11.3 19.3 0.00 0.30 0.30 57 942.8
20260507035513 28 47 11.3 19.3 0.00 0.30 0.30 57 942.8
20260507035412 28 33 11.3 19.3 0.00 0.30 0.30 57 942.8
20260507035313 28 78 11.3 19.3 0.00 0.30 0.30 57 942.8
20260507035211 29 45 11.3 19.3 0.00 0.30 0.30 57 942.9
20260507035110 29 64 9.7 19.3 0.00 0.30 0.30 57 942.8
20260507035006 29 58 9.7 19.3 0.00 0.30 0.30 56 942.8
20260507034905 29 52 9.7 16.1 0.00 0.30 0.30 56 942.8
20260507034805 29 56 9.7 14.5 0.00 0.30 0.30 56 942.8
20260507034705 29 52 9.7 14.5 0.00 0.30 0.30 56 942.8
20260507034605 29 18 9.7 14.5 0.00 0.30 0.30 56 942.8
20260507034505 29 18 9.7 17.7 0.00 0.30 0.30 56 942.7
20260507034359 29 53 9.7 17.7 0.00 0.30 0.30 56 942.7
20260507034259 29 44 11.3 17.7 0.00 0.30 0.30 56 942.7
20260507034158 29 62 11.3 19.3 0.00 0.30 0.30 56 942.8
20260507034053 29 26 11.3 19.3 0.00 0.30 0.30 56 942.7
20260507033949 29 29 11.3 19.3 0.00 0.30 0.30 56 942.7
20260507033849 29 25 11.3 19.3 0.00 0.30 0.30 56 942.7
20260507033749 29 41 11.3 19.3 0.00 0.30 0.30 56 942.7
20260507033648 29 49 11.3 20.9 0.00 0.30 0.30 56 942.6
20260507033549 29 47 12.9 20.9 0.00 0.30 0.30 56 942.6
20260507033449 29 67 12.9 20.9 0.00 0.30 0.30 56 942.6
20260507033349 29 27 12.9 20.9 0.00 0.30 0.30 56 942.6
20260507033249 29 48 12.9 20.9 0.00 0.30 0.30 56 942.6
20260507033149 29 88 11.3 20.9 0.00 0.30 0.30 56 942.6
20260507033049 29 50 11.3 20.9 0.00 0.30 0.30 56 942.6
20260507032950 29 32 11.3 20.9 0.00 0.30 0.30 56 942.6
20260507032849 29 49 11.3 20.9 0.00 0.30 0.30 56 942.6
20260507032749 29 49 11.3 20.9 0.00 0.30 0.30 56 942.5
20260507032649 29 60 11.3 20.9 0.00 0.30 0.30 56 942.5
20260507032549 29 32 11.3 19.3 0.00 0.30 0.30 56 942.5
20260507032450 29 30 11.3 19.3 0.00 0.30 0.30 56 942.5
20260507032349 29 42 11.3 19.3 0.00 0.30 0.30 56 942.5
20260507032250 29 38 11.3 19.3 0.00 0.30 0.30 56 942.5
20260507032149 29 38 11.3 19.3 0.00 0.30 0.30 56 942.5
20260507032048 29 38 11.3 19.3 0.00 0.30 0.30 56 942.5
20260507031948 29 29 11.3 19.3 0.00 0.30 0.30 56 942.5
20260507031848 29 31 11.3 19.3 0.00 0.30 0.30 56 942.4
20260507031744 29 49 11.3 19.3 0.00 0.30 0.30 56 942.5
20260507031643 29 44 11.3 19.3 0.00 0.30 0.30 56 942.4
20260507031544 29 37 11.3 19.3 0.00 0.30 0.30 56 942.4
20260507031443 29 51 11.3 20.9 0.00 0.30 0.30 56 942.4
20260507031344 29 35 11.3 20.9 0.00 0.30 0.30 56 942.3
20260507031244 29 35 11.3 20.9 0.00 0.30 0.30 56 942.3
20260507031143 29 47 11.3 20.9 0.00 0.30 0.30 56 942.3
20260507031044 29 36 11.3 20.9 0.00 0.30 0.30 56 942.3
20260507030943 29 47 11.3 20.9 0.00 0.30 0.30 56 942.3
20260507030844 29 49 11.3 20.9 0.00 0.30 0.30 56 942.2
20260507030743 29 19 11.3 20.9 0.00 0.30 0.30 56 942.2
20260507030643 29 40 11.3 20.9 0.00 0.30 0.30 56 942.2
20260507030544 29 70 11.3 20.9 0.00 0.30 0.30 56 942.1
20260507030444 29 28 11.3 20.9 0.00 0.30 0.30 56 942.1
20260507030344 29 80 9.7 20.9 0.00 0.30 0.30 56 942.1
20260507030243 29 50 11.3 20.9 0.00 0.30 0.30 56 942.1
20260507030144 29 23 9.7 19.3 0.00 0.30 0.30 57 942.0
20260507030045 29 66 9.7 19.3 0.00 0.30 0.30 56 942.0
20260507025944 29 70 9.7 19.3 0.00 0.30 0.30 56 942.0
20260507025844 29 71 9.7 19.3 0.00 0.30 0.30 56 942.0
20260507025743 29 50 11.3 19.3 0.00 0.30 0.30 56 941.9
20260507025644 29 65 11.3 19.3 0.00 0.30 0.30 56 941.9
20260507025544 29 51 11.3 19.3 0.00 0.30 0.30 56 941.9
20260507025444 29 49 11.3 19.3 0.00 0.30 0.30 56 941.9
20260507025343 29 55 11.3 20.9 0.00 0.30 0.30 56 941.9
20260507025244 29 47 11.3 20.9 0.00 0.30 0.30 57 941.9
20260507025144 29 74 11.3 20.9 0.00 0.30 0.30 57 941.8
20260507025046 29 57 11.3 20.9 0.00 0.30 0.30 57 941.8
20260507024945 29 61 11.3 20.9 0.00 0.30 0.30 57 941.8
20260507024846 29 44 11.3 20.9 0.00 0.30 0.30 57 941.8
20260507024745 29 46 11.3 20.9 0.00 0.30 0.30 57 941.8
20260507024645 29 54 11.3 27.4 0.00 0.30 0.30 57 941.8
20260507024546 29 45 11.3 27.4 0.00 0.30 0.30 56 941.8
20260507024445 29 16 11.3 27.4 0.00 0.30 0.30 56 941.7
20260507024346 29 33 11.3 27.4 0.00 0.30 0.30 56 941.8
20260507024246 29 50 11.3 27.4 0.00 0.30 0.30 56 941.7
20260507024145 29 62 12.9 27.4 0.00 0.30 0.30 56 941.8
20260507024045 29 37 12.9 27.4 0.00 0.30 0.30 56 941.7
20260507023946 29 49 12.9 27.4 0.00 0.30 0.30 56 941.7
20260507023845 29 59 12.9 27.4 0.00 0.30 0.30 56 941.7
20260507023746 29 62 12.9 27.4 0.00 0.30 0.30 56 941.7
20260507023646 29 58 12.9 27.4 0.00 0.30 0.30 56 941.8
20260507023545 29 54 12.9 24.1 0.00 0.30 0.30 56 941.7
20260507023446 29 65 12.9 24.1 0.00 0.30 0.30 56 941.7
20260507023346 29 68 12.9 27.4 0.00 0.30 0.30 56 941.7
20260507023245 29 86 12.9 27.4 0.00 0.30 0.30 56 941.7
20260507023145 29 66 12.9 27.4 0.00 0.30 0.30 56 941.7
20260507023046 29 32 12.9 27.4 0.00 0.30 0.30 56 941.7
20260507022945 29 53 12.9 27.4 0.00 0.30 0.30 56 941.6
20260507022846 29 93 12.9 27.4 0.00 0.30 0.30 56 941.6
20260507022746 29 111 14.5 27.4 0.00 0.30 0.30 56 941.7
20260507022645 30 69 14.5 27.4 0.00 0.30 0.30 56 941.6
20260507022541 30 48 12.9 27.4 0.00 0.30 0.30 56 941.6
20260507022442 30 46 12.9 27.4 0.00 0.30 0.30 56 941.5
20260507022341 30 48 12.9 27.4 0.00 0.30 0.30 55 941.6
20260507022239 30 56 12.9 20.9 0.00 0.30 0.30 55 941.5
20260507022140 30 68 12.9 22.5 0.00 0.30 0.30 55 941.5
20260507022036 30 49 12.9 22.5 0.00 0.30 0.30 55 941.5
20260507021936 30 42 14.5 22.5 0.05 0.30 0.30 55 941.5
20260507021835 30 29 14.5 22.5 0.05 0.30 0.30 55 941.5
20260507021734 30 53 14.5 22.5 0.05 0.30 0.30 55 941.5
20260507021634 30 51 14.5 22.5 0.05 0.30 0.30 55 941.4
20260507021530 30 86 14.5 27.4 0.05 0.30 0.30 55 941.4
20260507021429 30 55 16.1 27.4 0.05 0.30 0.30 55 941.4
20260507021330 30 55 16.1 27.4 0.05 0.30 0.30 55 941.3
20260507021229 30 71 16.1 27.4 0.05 0.30 0.30 55 941.3
20260507021129 30 66 16.1 27.4 0.05 0.30 0.30 55 941.3
20260507021030 30 64 16.1 27.4 0.05 0.30 0.30 55 941.3
20260507020928 30 54 16.1 27.4 0.05 0.30 0.30 55 941.1
20260507020828 30 57 14.5 27.4 0.05 0.30 0.30 55 941.3
20260507020728 30 25 16.1 29.0 0.05 0.30 0.30 55 941.3
20260507020628 30 40 16.1 29.0 0.05 0.30 0.30 55 941.3
20260507020528 30 58 14.5 29.0 0.10 0.30 0.30 55 940.9
20260507020428 30 64 14.5 29.0 0.10 0.30 0.30 55 941.2
20260507020328 30 68 14.5 29.0 0.10 0.30 0.30 55 941.2
20260507020228 30 41 14.5 29.0 0.10 0.30 0.30 55 941.1
20260507020128 30 60 14.5 29.0 0.10 0.30 0.30 55 941.1
20260507020028 30 33 14.5 29.0 0.10 0.30 0.30 55 941.1
20260507015929 30 59 14.5 29.0 0.10 0.30 0.30 55 941.0
20260507015828 30 96 14.5 29.0 0.10 0.30 0.30 55 941.0
20260507015728 30 50 14.5 27.4 0.10 0.30 0.30 55 940.9
20260507015629 30 36 14.5 27.4 0.10 0.30 0.30 55 940.9
20260507015528 30 80 14.5 27.4 0.10 0.30 0.30 55 940.9
20260507015429 30 70 14.5 27.4 0.10 0.30 0.30 55 940.9
20260507015328 30 70 14.5 27.4 0.10 0.30 0.30 54 940.8
20260507015228 30 59 14.5 27.4 0.13 0.30 0.30 54 940.8
20260507015129 30 61 14.5 27.4 0.13 0.30 0.30 54 940.8
20260507015029 30 65 14.5 27.4 0.13 0.30 0.30 54 940.9
20260507014929 30 39 14.5 27.4 0.13 0.30 0.30 54 940.8
20260507014828 30 76 14.5 25.7 0.13 0.30 0.30 54 940.8
20260507014729 30 56 14.5 25.7 0.13 0.30 0.30 54 940.8
20260507014629 30 57 14.5 25.7 0.15 0.30 0.30 54 940.9
20260507014528 30 46 14.5 25.7 0.15 0.30 0.30 54 940.8
20260507014429 30 94 14.5 25.7 0.18 0.30 0.30 54 940.9
20260507014329 30 51 14.5 25.7 0.18 0.30 0.30 54 940.8
20260507014228 30 85 14.5 25.7 0.18 0.30 0.30 54 940.7
20260507014129 30 76 14.5 25.7 0.18 0.30 0.30 54 940.8
20260507014028 30 50 14.5 25.7 0.18 0.30 0.30 54 940.8
20260507013929 30 74 14.5 30.6 0.18 0.30 0.30 54 940.8
20260507013829 30 34 16.1 30.6 0.18 0.30 0.30 53 940.8
20260507013729 30 52 16.1 30.6 0.18 0.30 0.30 53 940.7
20260507013629 30 65 14.5 30.6 0.18 0.30 0.30 53 940.7
20260507013528 30 29 16.1 30.6 0.18 0.30 0.30 53 940.7
20260507013428 30 84 16.1 30.6 0.20 0.30 0.30 53 940.7
20260507013329 30 23 16.1 30.6 0.20 0.30 0.30 53 940.7
20260507013229 30 53 16.1 30.6 0.20 0.30 0.30 53 940.7
20260507013128 30 70 17.7 30.6 0.20 0.30 0.30 53 940.6
20260507013029 30 65 17.7 30.6 0.18 0.30 0.30 53 940.5
20260507012928 30 67 17.7 29.0 0.20 0.30 0.30 52 940.5
20260507012829 30 47 16.1 29.0 0.20 0.30 0.30 52 940.6
20260507012729 30 62 16.1 29.0 0.20 0.30 0.30 52 940.5
20260507012628 30 61 16.1 32.2 0.23 0.30 0.30 52 940.5
20260507012529 30 43 17.7 32.2 0.25 0.30 0.30 52 940.5
20260507012425 30 63 17.7 32.2 0.25 0.30 0.30 52 940.5
20260507012324 31 82 17.7 32.2 0.25 0.30 0.30 52 940.3
20260507012225 31 66 16.1 32.2 0.25 0.30 0.30 52 940.4
20260507012123 31 58 16.1 32.2 0.25 0.30 0.30 52 940.4
20260507012023 31 80 16.1 32.2 0.20 0.25 0.25 52 940.2
20260507011923 31 60 16.1 32.2 0.20 0.25 0.25 52 940.3
20260507011823 31 67 16.1 32.2 0.20 0.25 0.25 52 940.3
20260507011723 31 59 17.7 32.2 0.23 0.25 0.25 52 940.3
20260507011624 31 38 17.7 32.2 0.23 0.25 0.25 52 940.3
20260507011523 31 51 17.7 30.6 0.23 0.25 0.25 52 940.2
20260507011423 31 57 17.7 30.6 0.23 0.25 0.25 52 940.3
20260507011323 31 50 17.7 33.8 0.25 0.25 0.25 52 940.1
20260507011223 31 63 19.3 33.8 0.25 0.25 0.25 52 940.1
20260507011123 31 67 20.9 33.8 0.25 0.25 0.25 51 940.1
20260507011023 31 80 20.9 33.8 0.25 0.25 0.25 51 940.1
20260507010924 31 31 20.9 33.8 0.25 0.25 0.25 51 940.1
20260507010822 31 59 20.9 33.8 0.25 0.25 0.25 51 940.1
20260507010722 31 30 20.9 33.8 0.25 0.25 0.25 51 940.0
20260507010622 31 56 19.3 33.8 0.25 0.25 0.25 51 940.0
20260507010522 31 63 19.3 35.4 0.20 0.20 0.20 51 940.0
20260507010421 31 86 19.3 35.4 0.20 0.20 0.20 51 939.9
20260507010322 31 75 19.3 35.4 0.20 0.20 0.20 51 939.8
20260507010221 31 61 19.3 35.4 0.20 0.20 0.20 51 939.9
20260507010122 31 69 19.3 35.4 0.20 0.20 0.20 51 939.8
20260507010021 31 50 19.3 35.4 0.20 0.20 0.20 51 939.7
20260507005922 31 53 19.3 35.4 0.20 0.20 0.20 51 939.8
20260507005822 31 69 19.3 35.4 0.20 0.20 0.20 51 939.7
20260507005722 31 81 19.3 35.4 0.20 0.20 0.20 50 939.7
20260507005622 31 50 19.3 35.4 0.20 0.20 0.20 51 939.7
20260507005522 31 46 19.3 35.4 0.20 0.20 0.20 51 939.6
20260507005422 31 63 19.3 32.2 0.20 0.20 0.20 51 939.7
20260507005322 31 43 17.7 32.2 0.20 0.20 0.20 51 939.6
20260507005222 31 65 17.7 32.2 0.18 0.18 0.18 50 939.7
20260507005124 31 50 17.7 32.2 0.18 0.18 0.18 50 939.6
20260507005023 31 62 17.7 32.2 0.18 0.18 0.18 50 939.6
20260507004923 31 67 17.7 32.2 0.18 0.18 0.18 50 939.5
20260507004824 31 69 17.7 32.2 0.18 0.18 0.18 50 939.6
20260507004723 31 30 17.7 32.2 0.18 0.18 0.18 50 939.5
20260507004624 31 63 17.7 30.6 0.15 0.15 0.15 50 939.4
20260507004523 31 57 17.7 30.6 0.15 0.15 0.15 50 939.5
20260507004424 31 36 17.7 30.6 0.15 0.15 0.15 50 939.5
20260507004324 31 61 17.7 30.6 0.13 0.13 0.13 50 939.6
20260507004224 31 36 17.7 30.6 0.13 0.13 0.13 49 939.5
20260507004124 32 85 17.7 30.6 0.13 0.13 0.13 49 939.5
20260507004024 32 54 17.7 33.8 0.13 0.13 0.13 49 939.4
20260507003924 32 81 17.7 33.8 0.13 0.13 0.13 49 939.4
20260507003824 32 52 19.3 33.8 0.13 0.13 0.13 48 939.5
20260507003724 32 48 19.3 35.4 0.13 0.13 0.13 48 939.4
20260507003623 32 63 19.3 40.2 0.13 0.13 0.13 48 939.4
20260507003524 32 45 19.3 40.2 0.13 0.13 0.13 48 939.3
20260507003419 32 19 20.9 40.2 0.10 0.10 0.10 48 939.2
20260507003321 32 66 20.9 40.2 0.10 0.10 0.10 48 939.3
20260507003219 32 47 20.9 40.2 0.10 0.10 0.10 48 939.1
20260507003118 32 52 20.9 40.2 0.10 0.10 0.10 48 939.2
20260507003018 32 52 19.3 40.2 0.10 0.10 0.10 48 939.2
20260507002918 32 58 19.3 40.2 0.10 0.10 0.10 47 938.9
20260507002818 32 65 17.7 40.2 0.10 0.10 0.10 47 939.2
20260507002718 32 23 17.7 40.2 0.10 0.10 0.10 47 939.1
20260507002613 32 42 17.7 40.2 0.08 0.08 0.08 47 939.0
20260507002514 32 62 17.7 37.0 0.05 0.05 0.05 46 939.0
20260507002413 32 59 17.7 37.0 0.05 0.05 0.05 46 939.0
20260507002314 32 87 17.7 37.0 0.05 0.05 0.05 46 939.0
20260507002213 32 56 17.7 37.0 0.05 0.05 0.05 46 938.9
20260507002114 32 57 17.7 37.0 0.05 0.05 0.05 46 938.9
20260507002013 32 43 17.7 37.0 0.05 0.05 0.05 46 938.8
20260507001914 32 39 19.3 37.0 0.05 0.05 0.05 46 938.9
20260507001814 32 34 19.3 37.0 0.05 0.05 0.05 46 938.8
20260507001713 32 73 20.9 37.0 0.05 0.05 0.05 46 938.9
20260507001613 32 67 20.9 37.0 0.03 0.03 0.03 46 938.9
20260507001514 32 69 20.9 37.0 0.03 0.03 0.03 46 938.7
20260507001413 32 61 19.3 37.0 0.03 0.03 0.03 46 938.8
20260507001314 32 49 17.7 35.4 0.00 0.00 0.00 45 938.8
20260507001214 32 56 17.7 35.4 0.00 0.00 0.00 45 938.7
20260507001114 32 47 17.7 35.4 0.00 0.00 0.00 46 938.6
20260507001014 32 55 17.7 35.4 0.00 0.00 0.00 46 938.7
20260507000913 32 87 17.7 35.4 0.00 0.00 0.00 46 938.5
20260507000814 33 88 17.7 35.4 0.00 0.00 0.00 46 938.5
20260507000714 33 60 17.7 32.2 0.00 0.00 0.00 45 938.5
20260507000613 33 67 17.7 32.2 0.00 0.00 0.00 45 938.5
20260507000514 33 47 17.7 33.8 0.00 0.00 0.00 45 938.4
20260507000414 33 55 19.3 33.8 0.00 0.00 0.00 45 938.3
20260507000314 33 53 19.3 33.8 0.00 0.00 0.00 45 938.3
20260507000214 33 14 20.9 33.8 0.00 0.00 0.00 45 938.3
20260507000114 33 40 20.9 33.8 0.00 0.00 0.00 45 938.3
20260507000014 33 61 20.9 33.8 0.00 0.00 0.00 45 938.2
20260506235914 33 40 20.9 33.8 0.00 0.00 0.00 45 938.3
20260506235814 33 39 20.9 33.8 0.00 0.00 0.00 45 938.3
20260506235714 33 46 19.3 33.8 0.00 0.00 0.00 44 938.3
20260506235614 33 49 19.3 33.8 0.00 0.00 0.00 44 938.3
20260506235515 33 56 19.3 33.8 0.00 0.00 0.00 44 938.2
20260506235414 33 39 17.7 30.6 0.00 0.00 0.00 43 938.3
20260506235314 33 54 17.7 29.0 0.00 0.00 0.00 43 938.3
20260506235214 33 59 17.7 27.4 0.00 0.00 0.00 43 938.3
20260506235114 34 59 17.7 27.4 0.00 0.00 0.00 42 938.2
20260506235015 34 44 17.7 27.4 0.00 0.00 0.00 42 938.2
20260506234914 34 24 17.7 27.4 0.00 0.00 0.00 42 938.2
20260506234814 34 60 17.7 27.4 0.00 0.00 0.00 42 938.1
20260506234715 34 43 17.7 27.4 0.00 0.00 0.00 41 938.1
20260506234614 34 57 17.7 27.4 0.00 0.00 0.00 41 938.0
20260506234514 34 75 16.1 30.6 0.00 0.00 0.00 41 938.1
20260506234414 35 52 17.7 30.6 0.00 0.00 0.00 41 937.9
20260506234315 35 53 17.7 30.6 0.00 0.00 0.00 40 938.1
20260506234214 35 63 16.1 30.6 0.00 0.00 0.00 40 938.0
20260506234115 35 10 16.1 30.6 0.00 0.00 0.00 39 937.9
20260506234014 35 25 16.1 30.6 0.00 0.00 0.00 38 937.9
20260506233915 35 67 14.5 30.6 0.00 0.00 0.00 37 937.8
20260506233815 35 79 14.5 30.6 0.00 0.00 0.00 36 937.9
20260506233714 35 59 14.5 30.6 0.00 0.00 0.00 35 937.9
20260506233615 35 76 14.5 30.6 0.00 0.00 0.00 35 937.9
20260506233514 35 69 14.5 30.6 0.00 0.00 0.00 35 937.9
20260506233415 35 65 14.5 30.6 0.00 0.00 0.00 35 937.7
20260506233313 36 47 12.9 30.6 0.00 0.00 0.00 34 937.8
20260506233212 36 31 12.9 30.6 0.00 0.00 0.00 33 937.5
20260506233113 36 46 12.9 30.6 0.00 0.00 0.00 33 937.8
20260506233013 36 70 12.9 30.6 0.00 0.00 0.00 33 937.8
20260506232910 36 52 14.5 30.6 0.00 0.00 0.00 33 937.7
20260506232810 36 59 12.9 30.6 0.00 0.00 0.00 32 937.6
20260506232710 36 59 12.9 30.6 0.00 0.00 0.00 31 937.6
20260506232610 36 91 12.9 30.6 0.00 0.00 0.00 30 937.7
20260506232509 36 59 11.3 30.6 0.00 0.00 0.00 28 937.6
20260506232410 36 84 11.3 25.7 0.00 0.00 0.00 27 937.5
20260506232310 36 96 11.3 25.7 0.00 0.00 0.00 26 937.4
20260506232210 36 81 11.3 20.9 0.00 0.00 0.00 25 937.5
20260506232110 36 41 11.3 20.9 0.00 0.00 0.00 25 937.5
20260506232010 36 48 11.3 20.9 0.00 0.00 0.00 24 937.5
20260506231910 37 20 11.3 20.9 0.00 0.00 0.00 23 937.5
20260506231809 37 20 9.7 20.9 0.00 0.00 0.00 21 937.4
20260506231710 36 13 9.7 19.3 0.00 0.00 0.00 21 937.5
20260506231610 36 39 9.7 19.3 0.00 0.00 0.00 21 937.5
20260506231510 36 61 11.3 19.3 0.00 0.00 0.00 21 937.4
20260506231410 36 59 11.3 19.3 0.00 0.00 0.00 21 937.5
20260506231310 36 103 11.3 19.3 0.00 0.00 0.00 21 937.4
20260506231210 36 88 11.3 19.3 0.00 0.00 0.00 21 937.5
20260506231110 36 71 11.3 19.3 0.00 0.00 0.00 21 937.5
20260506231011 36 61 11.3 17.7 0.00 0.00 0.00 22 937.4
20260506230910 36 33 11.3 17.7 0.00 0.00 0.00 21 937.4
20260506230811 36 70 11.3 17.7 0.00 0.00 0.00 21 937.4
20260506230710 36 50 11.3 17.7 0.00 0.00 0.00 21 937.4
20260506230610 36 20 9.7 17.7 0.00 0.00 0.00 21 937.4
20260506230510 36 31 9.7 17.7 0.00 0.00 0.00 21 937.4
20260506230410 37 16 9.7 17.7 0.00 0.00 0.00 21 937.4
20260506230311 37 48 9.7 17.7 0.00 0.00 0.00 21 937.4
20260506230210 37 44 9.7 17.7 0.00 0.00 0.00 21 937.3
20260506230111 37 13 9.7 17.7 0.00 0.00 0.00 21 937.3
20260506230010 37 32 9.7 17.7 0.00 0.00 0.00 21 937.3
20260506225910 37 35 9.7 17.7 0.00 0.00 0.00 21 937.4
20260506225811 37 20 9.7 17.7 0.00 0.00 0.00 21 937.3
20260506225710 37 30 9.7 17.7 0.00 0.00 0.00 20 937.3
20260506225611 37 53 9.7 17.7 0.00 0.00 0.00 20 937.3
20260506225510 37 30 9.7 17.7 0.00 0.00 0.00 20 937.3
20260506225411 37 18 8.0 17.7 0.00 0.00 0.00 20 937.3
20260506225310 37 22 8.0 17.7 0.00 0.00 0.00 20 937.3
20260506225210 37 27 8.0 16.1 0.00 0.00 0.00 20 937.3
20260506225111 37 51 8.0 16.1 0.00 0.00 0.00 19 937.3
20260506225011 37 40 8.0 14.5 0.00 0.00 0.00 19 937.3
20260506224911 37 56 8.0 16.1 0.00 0.00 0.00 18 937.2
20260506224810 37 81 8.0 16.1 0.00 0.00 0.00 17 937.2
20260506224711 37 35 8.0 16.1 0.00 0.00 0.00 16 937.2
20260506224611 36 61 8.0 16.1 0.00 0.00 0.00 17 937.2
20260506224511 36 42 8.0 16.1 0.00 0.00 0.00 17 937.2
20260506224410 36 35 8.0 16.1 0.00 0.00 0.00 18 937.2
20260506224311 36 28 8.0 16.1 0.00 0.00 0.00 17 937.2
20260506224211 36 74 8.0 16.1 0.00 0.00 0.00 17 937.2
20260506224110 36 137 8.0 16.1 0.00 0.00 0.00 17 937.2
20260506224011 36 64 8.0 17.7 0.00 0.00 0.00 17 937.2
20260506223910 36 89 8.0 17.7 0.00 0.00 0.00 17 937.1
20260506223807 36 29 8.0 17.7 0.00 0.00 0.00 17 937.1
20260506223705 37 44 8.0 17.7 0.00 0.00 0.00 16 937.1
20260506223605 37 57 8.0 17.7 0.00 0.00 0.00 16 937.1
20260506223501 37 61 8.0 17.7 0.00 0.00 0.00 16 937.1
20260506223400 36 50 8.0 17.7 0.00 0.00 0.00 17 937.1
20260506223301 36 90 8.0 17.7 0.00 0.00 0.00 17 937.1
20260506223159 36 78 8.0 17.7 0.00 0.00 0.00 17 937.1
20260506223059 36 59 8.0 17.7 0.00 0.00 0.00 17 937.1
20260506222959 36 62 8.0 17.7 0.00 0.00 0.00 17 937.1
20260506222859 37 73 8.0 17.7 0.00 0.00 0.00 17 937.1
20260506222800 37 59 8.0 17.7 0.00 0.00 0.00 17 937.1
20260506222659 37 82 8.0 17.7 0.00 0.00 0.00 17 937.1
20260506222559 37 32 8.0 17.7 0.00 0.00 0.00 17 937.1
20260506222459 37 69 8.0 17.7 0.00 0.00 0.00 17 937.1
20260506222359 37 47 9.7 17.7 0.00 0.00 0.00 16 937.1
20260506222258 37 286 9.7 17.7 0.00 0.00 0.00 16 937.1
20260506222159 37 64 9.7 17.7 0.00 0.00 0.00 16 937.1
20260506222059 36 70 9.7 17.7 0.00 0.00 0.00 16 937.1
20260506221959 36 72 9.7 17.7 0.00 0.00 0.00 16 937.1
20260506221859 36 48 9.7 17.7 0.00 0.00 0.00 17 937.1
20260506221759 36 21 9.7 17.7 0.00 0.00 0.00 17 937.2
20260506221659 36 40 9.7 17.7 0.00 0.00 0.00 17 937.2
20260506221600 36 79 9.7 17.7 0.00 0.00 0.00 17 937.2
20260506221500 36 46 9.7 17.7 0.00 0.00 0.00 18 937.2
20260506221359 36 66 9.7 17.7 0.00 0.00 0.00 18 937.2
20260506221259 36 59 8.0 17.7 0.00 0.00 0.00 18 937.2
20260506221159 36 68 8.0 16.1 0.00 0.00 0.00 18 937.2
20260506221059 36 73 9.7 16.1 0.00 0.00 0.00 17 937.2
20260506220959 37 90 9.7 17.7 0.00 0.00 0.00 17 937.2
20260506220859 37 69 9.7 17.7 0.00 0.00 0.00 17 937.2
20260506220800 37 87 8.0 17.7 0.00 0.00 0.00 17 937.3
20260506220659 37 103 8.0 17.7 0.00 0.00 0.00 17 937.3
20260506220559 37 83 9.7 20.9 0.00 0.00 0.00 17 937.3
20260506220500 37 58 9.7 20.9 0.00 0.00 0.00 17 937.3
20260506220359 37 54 9.7 20.9 0.00 0.00 0.00 17 937.3
20260506220300 37 72 9.7 20.9 0.00 0.00 0.00 17 937.3
20260506220159 37 71 9.7 20.9 0.00 0.00 0.00 17 937.3
20260506220059 37 92 9.7 20.9 0.00 0.00 0.00 17 937.2
20260506220000 37 56 8.0 20.9 0.00 0.00 0.00 17 937.3
20260506215859 37 36 8.0 20.9 0.00 0.00 0.00 18 937.3
20260506215759 37 54 8.0 20.9 0.00 0.00 0.00 18 937.2
20260506215658 37 78 8.0 20.9 0.00 0.00 0.00 18 937.3
20260506215558 37 61 6.4 16.1 0.00 0.00 0.00 17 937.3
20260506215458 37 45 6.4 14.5 0.00 0.00 0.00 17 937.3
20260506215358 37 40 6.4 14.5 0.00 0.00 0.00 15 937.3
20260506215258 37 56 6.4 14.5 0.00 0.00 0.00 15 937.3
20260506215158 37 321 6.4 14.5 0.00 0.00 0.00 15 937.3
20260506215058 37 71 6.4 14.5 0.00 0.00 0.00 16 937.3
20260506214958 37 63 8.0 14.5 0.00 0.00 0.00 16 937.3
20260506214858 37 47 8.0 14.5 0.00 0.00 0.00 16 937.3
20260506214758 37 250 8.0 14.5 0.00 0.00 0.00 16 937.2
20260506214658 37 74 8.0 14.5 0.00 0.00 0.00 16 937.2
20260506214559 37 36 8.0 14.5 0.00 0.00 0.00 16 937.2
20260506214458 37 34 6.4 14.5 0.00 0.00 0.00 16 937.2
20260506214358 37 27 6.4 14.5 0.00 0.00 0.00 16 937.2
20260506214259 37 2 6.4 14.5 0.00 0.00 0.00 16 937.2
20260506214157 37 37 6.4 14.5 0.00 0.00 0.00 15 937.2
20260506214057 37 57 6.4 14.5 0.00 0.00 0.00 15 937.1
20260506213957 37 39 6.4 14.5 0.00 0.00 0.00 15 937.2
20260506213857 37 83 6.4 14.5 0.00 0.00 0.00 15 937.2
20260506213752 37 47 6.4 14.5 0.00 0.00 0.00 15 937.2
20260506213652 37 44 6.4 14.5 0.00 0.00 0.00 14 937.2
20260506213553 37 63 6.4 14.5 0.00 0.00 0.00 14 937.2
20260506213453 37 67 8.0 14.5 0.00 0.00 0.00 14 937.2
20260506213353 37 92 8.0 14.5 0.00 0.00 0.00 14 937.2
20260506213252 37 61 8.0 17.7 0.00 0.00 0.00 14 937.2
20260506213152 37 247 9.7 17.7 0.00 0.00 0.00 14 937.2
20260506213053 37 63 9.7 17.7 0.00 0.00 0.00 15 937.3
20260506212953 37 33 9.7 17.7 0.00 0.00 0.00 15 937.2
20260506212852 37 263 9.7 17.7 0.00 0.00 0.00 15 937.3
20260506212753 37 42 9.7 17.7 0.00 0.00 0.00 15 937.3
20260506212653 37 34 11.3 32.2 0.00 0.00 0.00 15 937.3
20260506212552 37 36 11.3 35.4 0.00 0.00 0.00 16 937.3
20260506212453 37 37 12.9 38.6 0.00 0.00 0.00 16 937.4
20260506212352 37 29 14.5 38.6 0.00 0.00 0.00 16 937.4
20260506212253 37 214 14.5 38.6 0.00 0.00 0.00 16 937.4
20260506212153 37 40 14.5 38.6 0.00 0.00 0.00 15 937.4
20260506212053 37 42 14.5 38.6 0.00 0.00 0.00 14 937.4
20260506211953 37 175 14.5 38.6 0.00 0.00 0.00 14 937.4
20260506211853 37 178 14.5 38.6 0.00 0.00 0.00 14 937.4
20260506211754 37 225 14.5 38.6 0.00 0.00 0.00 13 937.4
20260506211653 37 177 12.9 38.6 0.00 0.00 0.00 13 937.4
20260506211553 37 147 11.3 38.6 0.00 0.00 0.00 13 937.4
20260506211453 37 222 11.3 48.3 0.00 0.00 0.00 13 937.5
20260506211353 37 44 9.7 48.3 0.00 0.00 0.00 14 937.5
20260506211253 37 224 9.7 48.3 0.00 0.00 0.00 14 937.5
20260506211153 37 65 9.7 48.3 0.00 0.00 0.00 14 937.5
20260506211053 37 50 9.7 48.3 0.00 0.00 0.00 15 937.6
20260506210952 37 36 9.7 48.3 0.00 0.00 0.00 15 937.6
20260506210853 37 39 9.7 48.3 0.00 0.00 0.00 14 937.6
20260506210753 37 55 9.7 48.3 0.00 0.00 0.00 16 937.7
20260506210654 37 43 9.7 48.3 0.00 0.00 0.00 16 937.6
20260506210553 37 46 9.7 48.3 0.00 0.00 0.00 16 937.6
20260506210454 37 225 8.0 33.8 0.00 0.00 0.00 16 937.7
20260506210353 37 49 8.0 33.8 0.00 0.00 0.00 16 937.7
20260506210253 37 68 8.0 33.8 0.00 0.00 0.00 16 937.7
20260506210153 37 46 6.4 33.8 0.00 0.00 0.00 16 937.7
20260506210053 37 53 6.4 33.8 0.00 0.00 0.00 15 937.7
20260506205954 37 71 6.4 33.8 0.00 0.00 0.00 13 937.7
20260506205853 37 203 6.4 33.8 0.00 0.00 0.00 13 937.6
20260506205754 37 108 6.4 33.8 0.00 0.00 0.00 12 937.6
20260506205653 37 212 6.4 16.1 0.00 0.00 0.00 12 937.6
20260506205553 37 241 6.4 16.1 0.00 0.00 0.00 13 937.7
20260506205454 38 128 6.4 30.6 0.00 0.00 0.00 13 937.7
20260506205353 38 227 6.4 30.6 0.00 0.00 0.00 13 937.7
20260506205253 38 55 6.4 30.6 0.00 0.00 0.00 13 937.7
20260506205153 38 226 6.4 30.6 0.00 0.00 0.00 13 937.7
20260506205053 38 225 6.4 30.6 0.00 0.00 0.00 14 937.7
20260506204954 38 225 6.4 30.6 0.00 0.00 0.00 14 937.7
20260506204853 38 226 8.0 30.6 0.00 0.00 0.00 14 937.7
20260506204754 38 225 8.0 30.6 0.00 0.00 0.00 14 937.8
20260506204652 38 231 8.0 30.6 0.00 0.00 0.00 15 937.8
20260506204552 38 217 9.7 30.6 0.00 0.00 0.00 15 937.8
20260506204451 38 241 9.7 17.7 0.00 0.00 0.00 15 937.9
20260506204352 38 238 9.7 17.7 0.00 0.00 0.00 13 937.9
20260506204252 38 295 9.7 17.7 0.00 0.00 0.00 10 937.9
20260506204152 38 229 9.7 32.2 0.00 0.00 0.00 9 937.9
20260506204052 38 252 9.7 32.2 0.00 0.00 0.00 9 937.9
20260506203948 38 328 9.7 32.2 0.00 0.00 0.00 9 937.9
20260506203847 38 354 8.0 32.2 0.00 0.00 0.00 8 937.9
20260506203748 38 6 8.0 32.2 0.00 0.00 0.00 9 937.9
20260506203646 38 244 6.4 32.2 0.00 0.00 0.00 9 937.9
20260506203546 38 18 6.4 32.2 0.00 0.00 0.00 9 938.0
20260506203446 38 227 6.4 32.2 0.00 0.00 0.00 9 938.0
20260506203346 38 334 6.4 32.2 0.00 0.00 0.00 8 938.0
20260506203246 38 227 6.4 32.2 0.00 0.00 0.00 8 938.0
20260506203146 38 62 4.8 27.4 0.00 0.00 0.00 8 938.0
20260506203046 38 18 6.4 29.0 0.00 0.00 0.00 8 938.0
20260506202946 38 225 6.4 29.0 0.00 0.00 0.00 8 938.0
20260506202846 38 224 6.4 29.0 0.00 0.00 0.00 8 938.0
20260506202746 38 226 6.4 29.0 0.00 0.00 0.00 8 938.0
20260506202646 37 226 6.4 29.0 0.00 0.00 0.00 8 938.0
20260506202546 38 174 6.4 29.0 0.00 0.00 0.00 8 938.0
20260506202446 38 164 6.4 29.0 0.00 0.00 0.00 8 938.1
20260506202346 38 325 6.4 29.0 0.00 0.00 0.00 8 938.1
20260506202246 37 226 6.4 29.0 0.00 0.00 0.00 8 938.1
20260506202147 37 345 6.4 29.0 0.00 0.00 0.00 8 938.1
20260506202046 37 229 6.4 29.0 0.00 0.00 0.00 8 938.2
20260506201946 37 243 6.4 11.3 0.00 0.00 0.00 8 938.2
20260506201846 37 299 6.4 30.6 0.00 0.00 0.00 8 938.2
20260506201747 37 23 6.4 30.6 0.00 0.00 0.00 8 938.2
20260506201646 37 327 6.4 30.6 0.00 0.00 0.00 8 938.2
20260506201546 37 226 6.4 30.6 0.00 0.00 0.00 8 938.2
20260506201446 37 10 6.4 30.6 0.00 0.00 0.00 9 938.2
20260506201346 37 226 6.4 30.6 0.00 0.00 0.00 9 938.3
20260506201247 37 228 6.4 30.6 0.00 0.00 0.00 9 938.2
20260506201146 37 252 6.4 30.6 0.00 0.00 0.00 9 938.2
20260506201046 37 268 6.4 30.6 0.00 0.00 0.00 9 938.2
20260506200946 37 188 6.4 30.6 0.00 0.00 0.00 8 938.2
20260506200846 37 40 6.4 11.3 0.00 0.00 0.00 9 938.3
20260506200747 37 19 6.4 11.3 0.00 0.00 0.00 8 938.3
20260506200646 37 39 6.4 11.3 0.00 0.00 0.00 8 938.3
20260506200546 37 94 6.4 11.3 0.00 0.00 0.00 9 938.3
20260506200446 37 175 6.4 11.3 0.00 0.00 0.00 11 938.3
20260506200346 37 169 6.4 11.3 0.00 0.00 0.00 11 938.3
20260506200247 37 166 4.8 11.3 0.00 0.00 0.00 11 938.4
20260506200146 37 144 4.8 11.3 0.00 0.00 0.00 12 938.5
20260506200046 37 167 4.8 11.3 0.00 0.00 0.00 12 938.5
20260506195946 37 165 4.8 11.3 0.00 0.00 0.00 15 938.6
20260506195846 37 205 4.8 11.3 0.00 0.00 0.00 15 938.6
20260506195747 37 354 6.4 11.3 0.00 0.00 0.00 16 938.7
20260506195647 37 131 6.4 11.3 0.00 0.00 0.00 16 938.7
20260506195546 37 91 6.4 12.9 0.00 0.00 0.00 14 938.7
20260506195447 37 40 6.4 12.9 0.00 0.00 0.00 13 938.6
20260506195346 37 227 6.4 12.9 0.00 0.00 0.00 12 938.6
20260506195247 37 354 6.4 12.9 0.00 0.00 0.00 11 938.6
20260506195147 37 344 6.4 12.9 0.00 0.00 0.00 12 938.6
20260506195046 37 343 6.4 12.9 0.00 0.00 0.00 12 938.6
20260506194947 37 318 6.4 12.9 0.00 0.00 0.00 11 938.7
20260506194847 37 342 6.4 12.9 0.00 0.00 0.00 10 938.6
20260506194747 36 40 6.4 12.9 0.00 0.00 0.00 11 938.7
20260506194647 36 16 6.4 12.9 0.00 0.00 0.00 12 938.7
20260506194546 36 21 6.4 12.9 0.00 0.00 0.00 15 938.8
20260506194443 36 195 6.4 14.5 0.00 0.00 0.00 16 938.8
20260506194342 36 175 6.4 14.5 0.00 0.00 0.00 16 938.8
20260506194243 36 351 6.4 14.5 0.00 0.00 0.00 16 938.8
20260506194141 36 30 6.4 14.5 0.00 0.00 0.00 18 938.9
20260506194041 36 62 6.4 14.5 0.00 0.00 0.00 19 938.9
20260506193941 36 56 6.4 14.5 0.00 0.00 0.00 20 939.0
20260506193841 36 70 6.4 14.5 0.00 0.00 0.00 21 939.0
20260506193741 36 61 6.4 14.5 0.00 0.00 0.00 21 939.0
20260506193641 36 357 6.4 14.5 0.00 0.00 0.00 21 939.1
20260506193540 36 12 6.4 14.5 0.00 0.00 0.00 21 939.1
20260506193441 36 40 6.4 14.5 0.00 0.00 0.00 21 939.2
20260506193342 36 35 6.4 14.5 0.00 0.00 0.00 21 939.3
20260506193241 36 38 6.4 14.5 0.00 0.00 0.00 21 939.3
20260506193142 36 38 8.0 14.5 0.00 0.00 0.00 20 939.3
20260506193041 36 277 8.0 16.1 0.00 0.00 0.00 19 939.3
20260506192941 36 234 9.7 17.7 0.00 0.00 0.00 18 939.3
20260506192842 36 97 9.7 17.7 0.00 0.00 0.00 18 939.3
20260506192741 36 41 9.7 19.3 0.00 0.00 0.00 19 939.3
20260506192641 36 27 9.7 19.3 0.00 0.00 0.00 20 939.3
20260506192541 36 5 9.7 19.3 0.00 0.00 0.00 20 939.4
20260506192441 36 1 8.0 19.3 0.00 0.00 0.00 20 939.4
20260506192341 36 12 8.0 19.3 0.00 0.00 0.00 20 939.4
20260506192241 36 4 8.0 19.3 0.00 0.00 0.00 21 939.4
20260506192141 36 357 6.4 19.3 0.00 0.00 0.00 20 939.4
20260506192041 36 6 6.4 19.3 0.00 0.00 0.00 20 939.4
20260506191941 36 13 4.8 19.3 0.00 0.00 0.00 20 939.4
20260506191841 36 27 4.8 19.3 0.00 0.00 0.00 18 939.4
20260506191742 36 335 3.2 9.7 0.00 0.00 0.00 16 939.4
20260506191641 36 6 3.2 9.7 0.00 0.00 0.00 21 939.5
20260506191541 36 195 3.2 9.7 0.00 0.00 0.00 22 939.5
20260506191441 36 159 3.2 9.7 0.00 0.00 0.00 23 939.5
20260506191341 36 194 3.2 9.7 0.00 0.00 0.00 22 939.6
20260506191241 36 154 3.2 9.7 0.00 0.00 0.00 22 939.6
20260506191141 36 130 3.2 9.7 0.00 0.00 0.00 22 939.6
20260506191042 35 142 3.2 14.5 0.00 0.00 0.00 23 939.6
20260506190941 35 146 4.8 16.1 0.00 0.00 0.00 24 939.6
20260506190842 35 198 4.8 16.1 0.00 0.00 0.00 23 939.7
20260506190742 35 243 4.8 16.1 0.00 0.00 0.00 24 939.7
20260506190641 35 191 4.8 16.1 0.00 0.00 0.00 25 939.7
20260506190542 35 265 6.4 16.1 0.00 0.00 0.00 25 939.8
20260506190442 35 219 4.8 16.1 0.00 0.00 0.00 25 939.8
20260506190341 35 313 4.8 16.1 0.00 0.00 0.00 25 939.8
20260506190242 35 54 4.8 16.1 0.00 0.00 0.00 25 939.8
20260506190141 35 7 4.8 16.1 0.00 0.00 0.00 25 939.8
20260506190042 35 25 4.8 16.1 0.00 0.00 0.00 26 939.8
20260506185941 35 207 4.8 14.5 0.00 0.00 0.00 26 939.8
20260506185841 35 73 4.8 14.5 0.00 0.00 0.00 26 939.8
20260506185742 35 41 6.4 14.5 0.00 0.00 0.00 25 939.8
20260506185641 35 44 6.4 14.5 0.00 0.00 0.00 25 939.9
20260506185542 35 211 6.4 14.5 0.00 0.00 0.00 25 939.9
20260506185441 35 117 6.4 14.5 0.00 0.00 0.00 26 939.9
20260506185342 35 48 6.4 14.5 0.00 0.00 0.00 26 939.9
20260506185242 35 16 6.4 14.5 0.00 0.00 0.00 26 939.9
20260506185140 35 357 6.4 14.5 0.00 0.00 0.00 26 940.0
20260506185041 35 17 4.8 14.5 0.00 0.00 0.00 25 940.0
20260506184940 35 9 4.8 14.5 0.00 0.00 0.00 26 940.0
20260506184840 35 149 4.8 14.5 0.00 0.00 0.00 26 940.0
20260506184741 35 26 4.8 12.9 0.00 0.00 0.00 26 940.0
20260506184640 35 34 3.2 12.9 0.00 0.00 0.00 27 940.0
20260506184540 35 147 3.2 12.9 0.00 0.00 0.00 26 940.1
20260506184441 35 105 3.2 12.9 0.00 0.00 0.00 27 940.1
20260506184342 35 261 3.2 12.9 0.00 0.00 0.00 27 940.1
20260506184242 35 0 3.2 12.9 0.00 0.00 0.00 27 940.1
20260506184141 35 321 3.2 12.9 0.00 0.00 0.00 27 940.1
20260506184037 35 297 4.8 12.9 0.00 0.00 0.00 28 940.1
20260506183938 35 314 4.8 12.9 0.00 0.00 0.00 26 940.2
20260506183836 35 299 4.8 11.3 0.00 0.00 0.00 26 940.2
20260506183736 35 287 4.8 11.3 0.00 0.00 0.00 26 940.2
20260506183636 35 326 4.8 11.3 0.00 0.00 0.00 26 940.2
20260506183536 34 272 4.8 11.3 0.00 0.00 0.00 26 940.2
20260506183436 34 0 4.8 11.3 0.00 0.00 0.00 26 940.2
20260506183336 34 66 4.8 11.3 0.00 0.00 0.00 30 940.2
20260506183236 34 7 4.8 11.3 0.00 0.00 0.00 30 940.2
20260506183137 34 191 4.8 11.3 0.00 0.00 0.00 30 940.3
20260506183036 34 41 4.8 11.3 0.00 0.00 0.00 30 940.3
20260506182936 34 20 4.8 11.3 0.00 0.00 0.00 30 940.3
20260506182837 34 354 4.8 9.7 0.00 0.00 0.00 31 940.4
20260506182736 34 31 4.8 9.7 0.00 0.00 0.00 31 940.4
20260506182635 33 0 4.8 9.7 0.00 0.00 0.00 32 940.4
20260506182531 33 174 4.8 9.7 0.00 0.00 0.00 32 940.4
20260506182432 33 182 4.8 9.7 0.00 0.00 0.00 32 940.4
20260506182331 33 211 4.8 9.7 0.00 0.00 0.00 31 940.4
20260506182232 33 142 4.8 9.7 0.00 0.00 0.00 32 940.4
20260506182132 33 158 4.8 9.7 0.00 0.00 0.00 33 940.5
20260506182031 33 153 4.8 9.7 0.00 0.00 0.00 34 940.5
20260506181932 33 347 4.8 9.7 0.00 0.00 0.00 34 940.5
20260506181832 33 359 4.8 9.7 0.00 0.00 0.00 34 940.5
20260506181732 33 58 4.8 11.3 0.00 0.00 0.00 33 940.5
20260506181632 33 182 4.8 11.3 0.00 0.00 0.00 33 940.5
20260506181533 33 206 4.8 11.3 0.00 0.00 0.00 34 940.6
20260506181432 33 83 4.8 11.3 0.00 0.00 0.00 33 940.6
20260506181332 33 136 4.8 11.3 0.00 0.00 0.00 34 940.6
20260506181232 33 153 4.8 11.3 0.00 0.00 0.00 35 940.6
20260506181132 33 174 4.8 11.3 0.00 0.00 0.00 35 940.6
20260506181033 33 3 4.8 11.3 0.00 0.00 0.00 36 940.6
20260506180932 33 352 4.8 11.3 0.00 0.00 0.00 36 940.6
20260506180832 33 15 4.8 11.3 0.00 0.00 0.00 36 940.6
20260506180732 33 21 4.8 11.3 0.00 0.00 0.00 36 940.7
20260506180632 33 13 4.8 9.7 0.00 0.00 0.00 36 940.7
20260506180532 33 19 4.8 9.7 0.00 0.00 0.00 36 940.8
20260506180432 33 3 4.8 9.7 0.00 0.00 0.00 35 940.8
20260506180332 33 41 4.8 9.7 0.00 0.00 0.00 36 940.8
20260506180233 33 59 4.8 11.3 0.00 0.00 0.00 36 940.8
20260506180132 33 0 4.8 11.3 0.00 0.00 0.00 35 940.8
20260506180032 33 78 6.4 11.3 0.00 0.00 0.00 36 940.8
20260506175932 33 77 6.4 11.3 0.00 0.00 0.00 36 940.8
20260506175832 33 50 6.4 11.3 0.00 0.00 0.00 36 940.8
20260506175733 33 30 6.4 11.3 0.00 0.00 0.00 36 940.8
20260506175632 33 74 6.4 11.3 0.00 0.00 0.00 37 940.8
20260506175533 33 75 6.4 11.3 0.00 0.00 0.00 37 940.8
20260506175432 33 15 6.4 11.3 0.00 0.00 0.00 37 940.8
20260506175330 33 50 6.4 11.3 0.00 0.00 0.00 36 940.8
20260506175231 33 41 6.4 11.3 0.00 0.00 0.00 36 940.8
20260506175126 32 32 4.8 11.3 0.00 0.00 0.00 39 940.8
20260506175027 32 52 4.8 11.3 0.00 0.00 0.00 40 940.8
20260506174926 32 112 4.8 11.3 0.00 0.00 0.00 40 940.8
20260506174826 32 65 4.8 11.3 0.00 0.00 0.00 41 940.9
20260506174725 33 45 4.8 11.3 0.00 0.00 0.00 41 940.9
20260506174624 33 92 4.8 11.3 0.00 0.00 0.00 41 941.0
20260506174525 33 71 4.8 11.3 0.00 0.00 0.00 42 941.0
20260506174425 32 102 4.8 11.3 0.00 0.00 0.00 43 941.0
20260506174320 33 46 4.8 11.3 0.00 0.00 0.00 43 941.0
20260506174219 33 65 4.8 11.3 0.00 0.00 0.00 42 941.0
20260506174119 33 44 3.2 11.3 0.00 0.00 0.00 40 941.0
20260506174019 32 79 3.2 8.0 0.00 0.00 0.00 40 941.0
20260506173918 32 95 4.8 8.0 0.00 0.00 0.00 39 941.0
20260506173819 32 359 4.8 8.0 0.00 0.00 0.00 39 941.0
20260506173714 32 338 4.8 8.0 0.00 0.00 0.00 39 941.0
20260506173615 32 20 4.8 8.0 0.00 0.00 0.00 41 941.0
20260506173515 32 286 4.8 9.7 0.00 0.00 0.00 42 941.1
20260506173414 32 9 4.8 9.7 0.00 0.00 0.00 42 941.1
20260506173315 32 33 6.4 9.7 0.00 0.00 0.00 43 941.1
20260506173214 32 359 6.4 9.7 0.00 0.00 0.00 42 941.1
20260506173115 32 44 6.4 9.7 0.00 0.00 0.00 43 941.1
20260506173014 32 30 4.8 9.7 0.00 0.00 0.00 44 941.1
20260506172914 32 0 4.8 9.7 0.00 0.00 0.00 44 941.2
20260506172815 32 30 4.8 9.7 0.00 0.00 0.00 44 941.2
20260506172715 32 64 4.8 9.7 0.00 0.00 0.00 45 941.2
20260506172615 32 63 4.8 9.7 0.00 0.00 0.00 45 941.2
20260506172515 32 56 4.8 9.7 0.00 0.00 0.00 45 941.2
20260506172415 32 73 4.8 9.7 0.00 0.00 0.00 45 941.2
20260506172315 32 66 4.8 9.7 0.00 0.00 0.00 45 941.2
20260506172215 32 22 4.8 9.7 0.00 0.00 0.00 45 941.2
20260506172116 32 37 4.8 9.7 0.00 0.00 0.00 45 941.2
20260506172015 32 38 4.8 9.7 0.00 0.00 0.00 46 941.2
20260506171915 32 349 4.8 9.7 0.00 0.00 0.00 45 941.2
20260506171815 32 0 4.8 11.3 0.00 0.00 0.00 43 941.2
20260506171715 32 340 4.8 11.3 0.00 0.00 0.00 45 941.2
20260506171615 32 45 6.4 11.3 0.00 0.00 0.00 46 941.2
20260506171515 32 15 6.4 12.9 0.00 0.00 0.00 46 941.2
20260506171416 32 5 6.4 12.9 0.00 0.00 0.00 46 941.3
20260506171315 32 0 4.8 12.9 0.00 0.00 0.00 45 941.3
20260506171215 32 35 6.4 12.9 0.00 0.00 0.00 44 941.2
20260506171115 32 31 6.4 12.9 0.00 0.00 0.00 44 941.2
20260506171015 32 8 6.4 12.9 0.00 0.00 0.00 45 941.3
20260506170916 32 357 6.4 12.9 0.00 0.00 0.00 44 941.3
20260506170815 32 354 4.8 12.9 0.00 0.00 0.00 44 941.2
20260506170715 32 17 4.8 12.9 0.00 0.00 0.00 45 941.3
20260506170615 32 351 4.8 12.9 0.00 0.00 0.00 45 941.2
20260506170515 32 354 3.2 11.3 0.00 0.00 0.00 46 941.3
20260506170415 32 327 4.8 11.3 0.00 0.00 0.00 46 941.3
20260506170315 32 342 4.8 11.3 0.00 0.00 0.00 46 941.3
20260506170215 32 9 4.8 11.3 0.00 0.00 0.00 47 941.3
20260506170116 32 308 4.8 11.3 0.00 0.00 0.00 46 941.4
20260506170015 31 31 4.8 11.3 0.00 0.00 0.00 46 941.4
20260506165915 31 0 4.8 9.7 0.00 0.00 0.00 46 941.3
20260506165816 31 310 4.8 9.7 0.00 0.00 0.00 48 941.4
20260506165714 31 334 4.8 9.7 0.00 0.00 0.00 48 941.4
20260506165615 31 294 4.8 9.7 0.00 0.00 0.00 48 941.4
20260506165515 31 355 4.8 9.7 0.00 0.00 0.00 48 941.4
20260506165415 31 8 4.8 9.7 0.00 0.00 0.00 48 941.4
20260506165315 31 326 4.8 9.7 0.00 0.00 0.00 48 941.4
20260506165216 31 354 4.8 9.7 0.00 0.00 0.00 48 941.4
20260506165115 31 351 4.8 9.7 0.00 0.00 0.00 49 941.3
20260506165015 31 15 3.2 9.7 0.00 0.00 0.00 49 941.4
20260506164915 31 16 3.2 9.7 0.00 0.00 0.00 50 941.3
20260506164816 31 5 3.2 9.7 0.00 0.00 0.00 50 941.3
20260506164714 31 23 3.2 9.7 0.00 0.00 0.00 50 941.4
20260506164613 31 328 3.2 9.7 0.00 0.00 0.00 52 941.4
20260506164514 31 26 3.2 9.7 0.00 0.00 0.00 52 941.4
20260506164414 31 11 3.2 9.7 0.00 0.00 0.00 52 941.4
20260506164314 31 356 3.2 9.7 0.00 0.00 0.00 52 941.4
20260506164214 31 24 4.8 9.7 0.00 0.00 0.00 53 941.5
20260506164114 31 149 4.8 9.7 0.00 0.00 0.00 53 941.5
20260506164014 31 105 4.8 9.7 0.00 0.00 0.00 53 941.5
20260506163914 31 43 4.8 9.7 0.00 0.00 0.00 53 941.5
20260506163810 31 62 4.8 9.7 0.00 0.00 0.00 52 941.4
20260506163709 31 27 4.8 8.0 0.00 0.00 0.00 53 941.4
20260506163610 31 335 3.2 8.0 0.00 0.00 0.00 53 941.4
20260506163510 31 11 3.2 8.0 0.00 0.00 0.00 52 941.4
20260506163409 31 5 3.2 8.0 0.00 0.00 0.00 52 941.4
20260506163309 31 25 3.2 8.0 0.00 0.00 0.00 52 941.4
20260506163210 31 355 3.2 8.0 0.00 0.00 0.00 52 941.4
20260506163109 30 3 3.2 8.0 0.00 0.00 0.00 53 941.4
20260506163010 30 268 3.2 8.0 0.00 0.00 0.00 53 941.5
20260506162910 30 209 3.2 11.3 0.00 0.00 0.00 53 941.5
20260506162810 30 48 3.2 11.3 0.00 0.00 0.00 54 941.5
20260506162710 30 25 3.2 11.3 0.00 0.00 0.00 54 941.5
20260506162609 30 16 4.8 11.3 0.00 0.00 0.00 54 941.5
20260506162510 30 0 4.8 11.3 0.00 0.00 0.00 55 941.5
20260506162410 30 230 4.8 11.3 0.00 0.00 0.00 55 941.5
20260506162310 30 41 4.8 11.3 0.00 0.00 0.00 55 941.5
20260506162209 30 357 4.8 11.3 0.00 0.00 0.00 55 941.6
20260506162110 30 8 4.8 11.3 0.00 0.00 0.00 55 941.5
20260506162010 30 332 4.8 11.3 0.00 0.00 0.00 55 941.6
20260506161909 30 8 3.2 11.3 0.00 0.00 0.00 55 941.5
20260506161810 30 22 3.2 9.7 0.00 0.00 0.00 55 941.5
20260506161710 30 35 3.2 9.7 0.00 0.00 0.00 55 941.6
20260506161610 30 7 3.2 9.7 0.00 0.00 0.00 56 941.6
20260506161510 30 333 3.2 8.0 0.00 0.00 0.00 56 941.6
20260506161410 30 347 4.8 8.0 0.00 0.00 0.00 56 941.6
20260506161310 30 353 3.2 8.0 0.00 0.00 0.00 57 941.5
20260506161210 30 15 3.2 8.0 0.00 0.00 0.00 58 941.5
20260506161110 30 14 3.2 8.0 0.00 0.00 0.00 58 941.5
20260506161010 30 28 3.2 8.0 0.00 0.00 0.00 58 941.5
20260506160910 30 25 3.2 8.0 0.00 0.00 0.00 58 941.5
20260506160810 30 26 3.2 8.0 0.00 0.00 0.00 58 941.5
20260506160711 30 50 3.2 8.0 0.00 0.00 0.00 57 941.5
20260506160610 30 56 3.2 8.0 0.00 0.00 0.00 57 941.5
20260506160510 30 19 1.6 8.0 0.00 0.00 0.00 56 941.6
20260506160411 30 31 1.6 9.7 0.00 0.00 0.00 56 941.6
20260506160310 30 123 3.2 9.7 0.00 0.00 0.00 57 941.6
20260506160210 30 331 3.2 9.7 0.00 0.00 0.00 57 941.6
20260506160110 30 0 3.2 9.7 0.00 0.00 0.00 58 941.6
20260506160010 29 0 3.2 9.7 0.00 0.00 0.00 58 941.6
20260506155909 29 56 3.2 9.7 0.00 0.00 0.00 58 941.6
20260506155809 29 89 3.2 9.7 0.00 0.00 0.00 59 941.6
20260506155708 29 284 3.2 9.7 0.00 0.00 0.00 58 941.6
20260506155609 29 28 3.2 9.7 0.00 0.00 0.00 59 941.6
20260506155504 29 307 3.2 9.7 0.00 0.00 0.00 59 941.6
20260506155405 29 4 3.2 6.4 0.00 0.00 0.00 59 941.6
20260506155306 29 345 3.2 6.4 0.00 0.00 0.00 58 941.6
20260506155205 29 357 3.2 6.4 0.00 0.00 0.00 59 941.6
20260506155104 29 9 3.2 6.4 0.00 0.00 0.00 58 941.6
20260506155003 28 18 3.2 6.4 0.00 0.00 0.00 59 941.6
20260506154903 28 16 3.2 6.4 0.00 0.00 0.00 59 941.6
20260506154759 28 352 3.2 6.4 0.00 0.00 0.00 60 941.6
20260506154658 28 2 3.2 6.4 0.00 0.00 0.00 61 941.6
20260506154559 28 0 3.2 6.4 0.00 0.00 0.00 61 941.6
20260506154459 28 0 3.2 6.4 0.00 0.00 0.00 62 941.6
20260506154357 28 111 3.2 6.4 0.00 0.00 0.00 62 941.6
20260506154257 28 144 3.2 6.4 0.00 0.00 0.00 62 941.6
20260506154157 28 179 3.2 6.4 0.00 0.00 0.00 61 941.5
20260506154058 28 153 1.6 6.4 0.00 0.00 0.00 62 941.5
20260506153957 28 191 1.6 6.4 0.00 0.00 0.00 62 941.5
20260506153856 28 131 1.6 6.4 0.00 0.00 0.00 62 941.5
20260506153753 28 130 1.6 6.4 0.00 0.00 0.00 62 941.5
20260506153653 28 187 1.6 6.4 0.00 0.00 0.00 62 941.5
20260506153551 28 215 1.6 6.4 0.00 0.00 0.00 62 941.5
20260506153451 28 134 1.6 6.4 0.00 0.00 0.00 62 941.5
20260506153352 28 147 1.6 6.4 0.00 0.00 0.00 61 941.4
20260506153251 28 0 1.6 6.4 0.00 0.00 0.00 62 941.4
20260506153147 28 71 1.6 6.4 0.00 0.00 0.00 62 941.4
20260506153047 28 141 1.6 6.4 0.00 0.00 0.00 61 941.4
20260506152947 28 115 1.6 4.8 0.00 0.00 0.00 62 941.4
20260506152847 28 0 1.6 4.8 0.00 0.00 0.00 61 941.4
20260506152747 28 35 1.6 4.8 0.00 0.00 0.00 62 941.3
20260506152647 28 42 1.6 4.8 0.00 0.00 0.00 62 941.4
20260506152546 28 4 1.6 4.8 0.00 0.00 0.00 62 941.4
20260506152447 28 5 1.6 4.8 0.00 0.00 0.00 62 941.3
20260506152347 28 352 1.6 4.8 0.00 0.00 0.00 62 941.3
20260506152247 28 301 1.6 6.4 0.00 0.00 0.00 63 941.3
20260506152147 27 0 1.6 6.4 0.00 0.00 0.00 63 941.3
20260506152047 27 317 3.2 6.4 0.00 0.00 0.00 64 941.3
20260506151947 27 355 3.2 6.4 0.00 0.00 0.00 64 941.4
20260506151847 27 37 3.2 6.4 0.00 0.00 0.00 64 941.4
20260506151747 27 42 3.2 6.4 0.00 0.00 0.00 65 941.4